LUF21 UNNT-PANC

Flight info

Callsign LUF21
Flight time N/A
Altitude 33000
Route DIMID1L DIMID R27 BANOK/K0889F350 R27 OLEMU M188 AKEBA G7 LURET R351 POKEP/K0889F370 R351 BEKMI M182 PEMID M180 NATUR T465 AGURA/N0484F370 DCT OTZ J117 GAL Q8 KKYLE KROTO5
Aircraft MD11/H-SDE1E2E3FGHIJ2J3J4J5M1RWXY/LB1D1

Departure

Time 2026-05-07 20:25
Airport Novosibirsk Tolmachevo Airport (UNNT)

Arrival

Time N/A
Airport Ted Stevens Anchorage International Airport (PANC)
Time Latitude Longitude Altitude Speed Heading
2026-05-07 19:28 55.00869 82.65686 380 ft 0 kts 128°
2026-05-07 20:08 55.00870 82.65683 380 ft 3 kts 129°
2026-05-07 20:08 55.00889 82.65650 380 ft 4 kts 147°
2026-05-07 20:08 55.00909 82.65637 380 ft 4 kts 205°
2026-05-07 20:08 55.00917 82.65648 380 ft 0 kts 261°
2026-05-07 20:13 55.00916 82.65634 380 ft 3 kts 261°
2026-05-07 20:13 55.00911 82.65582 380 ft 6 kts 260°
2026-05-07 20:13 55.00903 82.65494 380 ft 9 kts 261°
2026-05-07 20:13 55.00894 82.65397 380 ft 7 kts 261°
2026-05-07 20:14 55.00888 82.65320 380 ft 6 kts 262°
2026-05-07 20:14 55.00884 82.65253 380 ft 5 kts 266°
2026-05-07 20:14 55.00882 82.65197 380 ft 4 kts 268°
2026-05-07 20:14 55.00887 82.65155 380 ft 3 kts 288°
2026-05-07 20:15 55.00895 82.65136 380 ft 1 kts 315°
2026-05-07 20:15 55.00910 82.65132 380 ft 5 kts 349°
2026-05-07 20:15 55.00931 82.65127 380 ft 0 kts 351°
2026-05-07 20:15 55.00946 82.65123 380 ft 4 kts 351°
2026-05-07 20:16 55.00984 82.65112 380 ft 7 kts 351°
2026-05-07 20:16 55.01041 82.65096 380 ft 8 kts 351°
2026-05-07 20:16 55.01095 82.65081 380 ft 7 kts 351°
2026-05-07 20:16 55.01139 82.65070 380 ft 7 kts 351°
2026-05-07 20:17 55.01197 82.65054 379 ft 9 kts 354°
2026-05-07 20:17 55.01234 82.65074 380 ft 2 kts 37°
2026-05-07 20:17 55.01239 82.65085 380 ft 1 kts 53°
2026-05-07 20:17 55.01244 82.65102 380 ft 2 kts 61°
2026-05-07 20:18 55.01253 82.65155 381 ft 7 kts 78°
2026-05-07 20:18 55.01264 82.65272 381 ft 10 kts 81°
2026-05-07 20:18 55.01275 82.65400 380 ft 11 kts 81°
2026-05-07 20:18 55.01286 82.65533 380 ft 11 kts 81°
2026-05-07 20:19 55.01299 82.65675 379 ft 12 kts 81°
2026-05-07 20:19 55.01314 82.65826 380 ft 13 kts 81°
2026-05-07 20:19 55.01327 82.65973 380 ft 13 kts 81°
2026-05-07 20:19 55.01343 82.66147 379 ft 16 kts 81°
2026-05-07 20:20 55.01361 82.66351 381 ft 16 kts 81°
2026-05-07 20:20 55.01376 82.66528 382 ft 14 kts 81°
2026-05-07 20:20 55.01391 82.66691 382 ft 14 kts 81°
2026-05-07 20:20 55.01406 82.66851 382 ft 13 kts 81°
2026-05-07 20:21 55.01420 82.66997 382 ft 12 kts 81°
2026-05-07 20:21 55.01434 82.67146 381 ft 13 kts 81°
2026-05-07 20:21 55.01449 82.67311 379 ft 15 kts 81°
2026-05-07 20:21 55.01460 82.67435 378 ft 16 kts 81°
2026-05-07 20:22 55.01471 82.67642 379 ft 5 kts 99°
2026-05-07 20:22 55.01479 82.67658 379 ft 2 kts 33°
2026-05-07 20:22 55.01490 82.67640 379 ft 2 kts 301°
2026-05-07 20:22 55.01486 82.67617 379 ft 3 kts 254°
2026-05-07 20:23 55.01478 82.67585 378 ft 3 kts 248°
2026-05-07 20:23 55.01473 82.67557 378 ft 2 kts 252°
2026-05-07 20:23 55.01469 82.67532 378 ft 4 kts 255°
2026-05-07 20:23 55.01467 82.67515 378 ft 0 kts 260°
2026-05-07 20:24 55.01459 82.67440 378 ft 29 kts 260°
2026-05-07 20:24 55.01385 82.66628 382 ft 105 kts 261°
2026-05-07 20:24 55.01291 82.65606 380 ft 148 kts 261°
2026-05-07 20:24 55.01036 82.62771 415 ft 201 kts 261°
2026-05-07 20:25 55.00824 82.60373 1088 ft 192 kts 260°
2026-05-07 20:25 55.00686 82.58892 1846 ft 181 kts 262°
2026-05-07 20:25 55.00420 82.55990 2778 ft 183 kts 262°
2026-05-07 20:25 55.00358 82.53747 3397 ft 187 kts 278°
2026-05-07 20:26 55.00833 82.51559 3743 ft 207 kts 306°
2026-05-07 20:26 55.01823 82.49712 4239 ft 212 kts 314°
2026-05-07 20:26 55.02902 82.47917 4734 ft 215 kts 315°
2026-05-07 20:26 55.03997 82.46126 5249 ft 215 kts 314°
2026-05-07 20:27 55.04724 82.44942 5586 ft 217 kts 314°
2026-05-07 20:27 55.05829 82.43146 6041 ft 219 kts 314°
2026-05-07 20:27 55.06951 82.41328 6466 ft 222 kts 314°
2026-05-07 20:27 55.08569 82.38701 6655 ft 252 kts 314°
2026-05-07 20:28 55.09923 82.36503 6793 ft 280 kts 315°
2026-05-07 20:28 55.11390 82.34131 7356 ft 290 kts 315°
2026-05-07 20:28 55.12884 82.31722 8100 ft 295 kts 315°
2026-05-07 20:28 55.13886 82.30106 8605 ft 297 kts 315°
2026-05-07 20:29 55.15939 82.26794 9628 ft 302 kts 316°
2026-05-07 20:29 55.17491 82.24286 10235 ft 311 kts 315°
2026-05-07 20:29 55.18574 82.22531 10307 ft 328 kts 316°
2026-05-07 20:29 55.20984 82.18872 10547 ft 356 kts 327°
2026-05-07 20:30 55.22476 82.17676 11086 ft 357 kts 341°
2026-05-07 20:30 55.24939 82.16745 11726 ft 364 kts 351°
2026-05-07 20:30 55.28310 82.16198 12650 ft 371 kts 354°
2026-05-07 20:30 55.30058 82.15989 13064 ft 374 kts 354°
2026-05-07 20:31 55.33518 82.15568 13946 ft 378 kts 354°
2026-05-07 20:31 55.35298 82.15475 14333 ft 382 kts 359°
2026-05-07 20:31 55.37943 82.16191 14890 ft 389 kts 16°
2026-05-07 20:31 55.40353 82.18431 15428 ft 398 kts 37°
2026-05-07 20:32 55.42200 82.22110 15923 ft 407 kts 58°
2026-05-07 20:32 55.43301 82.26710 16438 ft 412 kts 74°
2026-05-07 20:32 55.43904 82.31675 16883 ft 418 kts 80°
2026-05-07 20:32 55.44361 82.36759 17361 ft 422 kts 81°
2026-05-07 20:33 55.44833 82.41894 17837 ft 426 kts 79°
2026-05-07 20:33 55.45361 82.46990 18291 ft 431 kts 78°
2026-05-07 20:33 55.45955 82.52175 18692 ft 434 kts 77°
2026-05-07 20:33 55.46778 82.57317 19069 ft 436 kts 67°
2026-05-07 20:34 55.48201 82.62006 19467 ft 435 kts 50°
2026-05-07 20:34 55.50318 82.65763 19848 ft 430 kts 31°
2026-05-07 20:34 55.52933 82.68206 20212 ft 424 kts 14°
2026-05-07 20:34 55.55788 82.69271 20589 ft 418 kts
2026-05-07 20:35 55.58691 82.69471 21003 ft 417 kts 354°
2026-05-07 20:35 55.61596 82.69383 21427 ft 419 kts 353°
2026-05-07 20:35 55.64516 82.69263 21863 ft 421 kts 353°
2026-05-07 20:35 55.67462 82.69195 22293 ft 424 kts 354°
2026-05-07 20:36 55.70411 82.69191 22738 ft 427 kts 354°
2026-05-07 20:36 55.73395 82.69236 23195 ft 430 kts 355°
2026-05-07 20:36 55.76406 82.69306 23601 ft 434 kts 355°
2026-05-07 20:36 55.79428 82.69398 23983 ft 436 kts 355°
2026-05-07 20:37 55.82476 82.69499 24377 ft 439 kts 355°
2026-05-07 20:37 55.85537 82.69602 24772 ft 442 kts 355°
2026-05-07 20:37 55.88622 82.69705 25176 ft 444 kts 355°
2026-05-07 20:37 55.91721 82.69808 25582 ft 447 kts 355°
2026-05-07 20:38 55.94831 82.69909 25970 ft 449 kts 355°
2026-05-07 20:38 55.97966 82.70025 26361 ft 452 kts 356°
2026-05-07 20:38 56.01128 82.70418 26737 ft 459 kts
2026-05-07 20:38 56.04292 82.71505 27113 ft 468 kts 10°
2026-05-07 20:39 56.07375 82.73519 27474 ft 478 kts 20°
2026-05-07 20:39 56.10292 82.76527 27849 ft 488 kts 31°
2026-05-07 20:39 56.12919 82.80388 28244 ft 496 kts 39°
2026-05-07 20:39 56.15373 82.84780 28576 ft 501 kts 43°
2026-05-07 20:40 56.17752 82.89385 28913 ft 505 kts 44°
2026-05-07 20:40 56.20129 82.94056 29248 ft 508 kts 43°
2026-05-07 20:40 56.22504 82.98668 29561 ft 510 kts 43°
2026-05-07 20:40 56.24940 83.03318 29870 ft 513 kts 42°
2026-05-07 20:41 56.27413 83.07978 30140 ft 515 kts 42°
2026-05-07 20:41 56.29901 83.12633 30408 ft 517 kts 41°
2026-05-07 20:41 56.32397 83.17295 30662 ft 518 kts 41°
2026-05-07 20:41 56.34899 83.21973 30987 ft 518 kts 41°
2026-05-07 20:42 56.37392 83.26652 31324 ft 517 kts 42°
2026-05-07 20:42 56.39882 83.31352 31644 ft 517 kts 42°
2026-05-07 20:42 56.42360 83.36042 31974 ft 516 kts 42°
2026-05-07 20:42 56.44836 83.40731 32275 ft 515 kts 42°
2026-05-07 20:43 56.47309 83.45415 32573 ft 514 kts 42°
2026-05-07 20:43 56.49774 83.50087 32850 ft 514 kts 42°
2026-05-07 20:43 56.52247 83.54779 32921 ft 516 kts 42°
2026-05-07 20:44 56.57210 83.64220 32932 ft 518 kts 42°
2026-05-07 20:44 56.62169 83.73700 32931 ft 518 kts 42°
2026-05-07 20:45 56.67119 83.83201 32932 ft 518 kts 42°
2026-05-07 20:45 56.72058 83.92719 32939 ft 517 kts 42°
2026-05-07 20:46 56.76982 84.02248 32925 ft 517 kts 43°
2026-05-07 20:46 56.81905 84.11814 32916 ft 517 kts 43°
2026-05-07 20:47 56.86819 84.21400 32919 ft 517 kts 43°
2026-05-07 20:47 56.91728 84.31017 32935 ft 517 kts 43°
2026-05-07 20:48 56.96621 84.40705 32930 ft 518 kts 43°
2026-05-07 20:48 57.01477 84.50411 32923 ft 514 kts 44°
2026-05-07 20:49 57.06315 84.60048 32917 ft 512 kts 43°
2026-05-07 20:49 57.11150 84.69664 32927 ft 512 kts 42°
2026-05-07 20:50 57.16540 84.78045 32913 ft 505 kts 30°
2026-05-07 20:50 57.22374 84.85238 32916 ft 504 kts 28°
2026-05-07 20:51 57.28221 84.92369 32945 ft 504 kts 30°
2026-05-07 20:51 57.33990 84.99623 32910 ft 500 kts 30°
2026-05-07 20:52 57.39711 85.06927 32903 ft 500 kts 31°
2026-05-07 20:52 57.45393 85.14215 32905 ft 500 kts 31°
2026-05-07 20:53 57.51110 85.21570 32895 ft 500 kts 30°
2026-05-07 20:53 57.56848 85.28975 32921 ft 502 kts 31°
2026-05-07 20:54 57.62551 85.36367 32891 ft 498 kts 31°
2026-05-07 20:54 57.68227 85.43752 32890 ft 498 kts 31°
2026-05-07 20:55 57.73899 85.51160 32885 ft 498 kts 31°
2026-05-07 20:55 57.79576 85.58602 32883 ft 498 kts 31°
2026-05-07 20:56 57.85229 85.66112 32897 ft 498 kts 32°
2026-05-07 20:56 57.91035 85.73850 32888 ft 496 kts 32°
2026-05-07 20:57 57.96663 85.81332 32877 ft 497 kts 32°
2026-05-07 20:57 58.02297 85.88845 32873 ft 497 kts 32°
2026-05-07 20:58 58.07906 85.96341 32874 ft 497 kts 32°
2026-05-07 20:58 58.13545 86.03902 32873 ft 497 kts 32°
2026-05-07 20:59 58.19168 86.11470 32868 ft 495 kts 31°
2026-05-07 20:59 58.24817 86.19102 32856 ft 495 kts 32°
2026-05-07 21:00 58.30396 86.26670 32859 ft 495 kts 32°
2026-05-07 21:00 58.36001 86.34302 32851 ft 497 kts 32°
2026-05-07 21:01 58.41625 86.41994 32851 ft 497 kts 32°
2026-05-07 21:01 58.47236 86.49699 32848 ft 496 kts 32°
2026-05-07 21:02 58.52830 86.57411 32842 ft 496 kts 32°
2026-05-07 21:02 58.58420 86.65148 32837 ft 497 kts 32°
2026-05-07 21:03 58.64073 86.72765 32838 ft 494 kts 27°
2026-05-07 21:03 58.70039 86.79215 32832 ft 491 kts 23°
2026-05-07 21:04 58.76113 86.85256 32838 ft 492 kts 22°
2026-05-07 21:04 58.82199 86.91370 32830 ft 493 kts 23°
2026-05-07 21:05 58.88265 86.97573 32821 ft 494 kts 23°
2026-05-07 21:05 58.94290 87.03788 32824 ft 494 kts 24°
2026-05-07 21:06 59.00346 87.10060 32828 ft 494 kts 24°
2026-05-07 21:06 59.06421 87.16372 32825 ft 497 kts 23°
2026-05-07 21:07 59.12517 87.22728 32819 ft 497 kts 23°
2026-05-07 21:07 59.18621 87.29076 32818 ft 497 kts 23°
2026-05-07 21:08 59.24724 87.35411 32818 ft 497 kts 23°
2026-05-07 21:08 59.30762 87.41694 32821 ft 497 kts 23°
2026-05-07 21:09 59.36901 87.48109 32813 ft 498 kts 23°
2026-05-07 21:09 59.42995 87.54507 32813 ft 498 kts 23°
2026-05-07 21:10 59.49093 87.60936 32812 ft 498 kts 23°
2026-05-07 21:10 59.55192 87.67391 32806 ft 498 kts 24°
2026-05-07 21:11 59.60256 87.72771 32823 ft 499 kts 23°
2026-05-07 21:11 59.69437 87.82573 32810 ft 500 kts 23°
2026-05-07 21:12 59.75558 87.89143 32807 ft 500 kts 23°
2026-05-07 21:12 59.81636 87.95695 32804 ft 500 kts 24°
2026-05-07 21:13 59.87733 88.02358 32855 ft 500 kts 23°
2026-05-07 21:13 59.93855 88.09061 32803 ft 503 kts 23°
2026-05-07 21:14 59.99998 88.15780 32795 ft 503 kts 23°
2026-05-07 21:14 60.06141 88.22513 32793 ft 503 kts 23°
2026-05-07 21:15 60.12281 88.29271 32796 ft 503 kts 23°
2026-05-07 21:15 60.18423 88.36060 32820 ft 505 kts 23°
2026-05-07 21:16 60.24596 88.42911 32786 ft 507 kts 23°
2026-05-07 21:16 60.30772 88.49801 32780 ft 507 kts 23°
2026-05-07 21:17 60.36938 88.56709 32795 ft 507 kts 23°
2026-05-07 21:17 60.43109 88.63653 32790 ft 507 kts 23°
2026-05-07 21:18 60.49282 88.70628 32791 ft 509 kts 23°
2026-05-07 21:18 60.55432 88.77611 32780 ft 510 kts 23°
2026-05-07 21:19 60.61624 88.84750 32779 ft 511 kts 23°
2026-05-07 21:19 60.67809 88.91882 32772 ft 511 kts 23°
2026-05-07 21:20 60.73999 88.99009 32772 ft 511 kts 23°
2026-05-07 21:20 60.80201 89.06168 32774 ft 514 kts 23°
2026-05-07 21:21 60.86433 89.13397 32774 ft 514 kts 23°
2026-05-07 21:21 60.92655 89.20653 32765 ft 514 kts 23°
2026-05-07 21:22 60.98875 89.27938 32769 ft 515 kts 23°
2026-05-07 21:22 61.05091 89.35252 32822 ft 515 kts 23°
2026-05-07 21:23 61.11372 89.42666 32775 ft 521 kts 23°
2026-05-07 21:23 61.17625 89.50092 32762 ft 522 kts 24°
2026-05-07 21:24 61.23906 89.57649 32762 ft 522 kts 24°
2026-05-07 21:24 61.30180 89.65217 32763 ft 522 kts 24°
2026-05-07 21:25 61.36469 89.72792 32783 ft 526 kts 23°
2026-05-07 21:25 61.42827 89.80464 32770 ft 529 kts 23°
2026-05-07 21:26 61.49195 89.88196 32773 ft 529 kts 24°
2026-05-07 21:26 61.55564 89.95969 32771 ft 529 kts 24°
2026-05-07 21:27 61.61570 90.05096 32766 ft 540 kts 40°
2026-05-07 21:27 61.66232 90.17636 32766 ft 553 kts 57°
2026-05-07 21:28 61.70066 90.31741 32758 ft 555 kts 58°
2026-05-07 21:28 61.74097 90.45594 32757 ft 554 kts 54°
2026-05-07 21:29 61.78343 90.59144 32751 ft 553 kts 53°
2026-05-07 21:29 61.82631 90.72657 32737 ft 553 kts 53°
2026-05-07 21:30 61.86860 90.86193 32729 ft 551 kts 54°
2026-05-07 21:30 61.91072 90.99768 32733 ft 551 kts 54°
2026-05-07 21:31 61.95294 91.13390 32753 ft 555 kts 54°
2026-05-07 21:31 61.99509 91.27051 32731 ft 556 kts 54°
2026-05-07 21:32 62.03743 91.40857 32731 ft 557 kts 54°
2026-05-07 21:32 62.07951 91.54672 32721 ft 553 kts 54°
2026-05-07 21:33 62.12128 91.68462 32715 ft 554 kts 54°
2026-05-07 21:33 62.16297 91.82310 32716 ft 554 kts 55°
2026-05-07 21:34 62.20456 91.96207 32721 ft 554 kts 55°
2026-05-07 21:34 62.24596 92.10127 32715 ft 554 kts 55°
2026-05-07 21:35 62.28717 92.24095 32689 ft 551 kts 56°
2026-05-07 21:35 62.32741 92.38063 32690 ft 549 kts 56°
2026-05-07 21:36 62.36768 92.52006 32696 ft 549 kts 56°
2026-05-07 21:36 62.40815 92.65969 32681 ft 549 kts 56°
2026-05-07 21:37 62.44851 92.79942 32680 ft 549 kts 56°
2026-05-07 21:37 62.48879 92.93987 32631 ft 549 kts 56°
2026-05-07 21:38 62.52878 93.08022 32672 ft 548 kts 56°
2026-05-07 21:38 62.56841 93.22021 32659 ft 548 kts 56°
2026-05-07 21:39 62.60819 93.36160 32649 ft 549 kts 57°
2026-05-07 21:39 62.64768 93.50286 32650 ft 549 kts 57°
2026-05-07 21:40 62.68721 93.64511 32638 ft 549 kts 57°
2026-05-07 21:40 62.72632 93.78731 32618 ft 544 kts 58°
2026-05-07 21:41 62.76446 93.92927 32614 ft 542 kts 58°
2026-05-07 21:41 62.80286 94.07152 32618 ft 546 kts 58°
2026-05-07 21:42 62.84163 94.21471 32600 ft 547 kts 58°
2026-05-07 21:42 62.88030 94.35823 32602 ft 547 kts 58°
2026-05-07 21:43 62.91880 94.50207 32565 ft 547 kts 58°
2026-05-07 21:43 62.95686 94.64532 32589 ft 541 kts 58°
2026-05-07 21:44 62.99467 94.78851 32594 ft 541 kts 58°
2026-05-07 21:44 63.03230 94.93191 32585 ft 541 kts 59°
2026-05-07 21:45 63.06969 95.07535 32588 ft 545 kts 59°
2026-05-07 21:45 63.10741 95.22098 32570 ft 547 kts 59°
2026-05-07 21:46 63.14485 95.36712 32565 ft 545 kts 60°
2026-05-07 21:46 63.18149 95.51373 32555 ft 544 kts 60°
2026-05-07 21:47 63.21832 95.66028 32557 ft 544 kts 60°
2026-05-07 21:47 63.25527 95.80685 32548 ft 544 kts 60°
2026-05-07 21:48 63.29204 95.95384 32543 ft 544 kts 60°
2026-05-07 21:48 63.32835 96.10175 32515 ft 546 kts 60°
2026-05-07 21:49 63.36462 96.25020 32527 ft 544 kts 60°
2026-05-07 21:49 63.40075 96.39854 32530 ft 544 kts 60°
2026-05-07 21:50 63.43653 96.54623 32529 ft 544 kts 61°
2026-05-07 21:50 63.47239 96.69531 32518 ft 544 kts 61°
2026-05-07 21:51 63.50832 96.84576 32518 ft 545 kts 61°
2026-05-07 21:51 63.54363 96.99462 32517 ft 544 kts 61°
2026-05-07 21:52 63.57902 97.14485 32513 ft 546 kts 62°
2026-05-07 21:52 63.61441 97.29620 32493 ft 548 kts 62°
2026-05-07 21:53 63.64971 97.44807 32495 ft 548 kts 62°
2026-05-07 21:53 63.68465 97.60067 32480 ft 548 kts 63°
2026-05-07 21:54 63.71887 97.75370 32447 ft 548 kts 63°
2026-05-07 21:54 63.75314 97.90591 32480 ft 542 kts 63°
2026-05-07 21:55 63.78741 98.05767 32467 ft 542 kts 63°
2026-05-07 21:55 63.82156 98.20972 32542 ft 542 kts 63°
2026-05-07 21:56 63.85568 98.36293 32470 ft 546 kts 63°
2026-05-07 21:56 63.88974 98.51701 32450 ft 546 kts 63°
2026-05-07 21:57 63.92362 98.67144 32455 ft 543 kts 63°
2026-05-07 21:57 63.95707 98.82506 32467 ft 541 kts 63°
2026-05-07 21:58 63.98997 98.97924 32453 ft 541 kts 64°
2026-05-07 21:58 64.02271 99.13236 32452 ft 541 kts 63°
2026-05-07 21:59 64.05574 99.28638 32456 ft 541 kts 63°
2026-05-07 21:59 64.08876 99.44099 32433 ft 542 kts 64°
2026-05-07 22:00 64.12150 99.59563 32442 ft 537 kts 63°
2026-05-07 22:00 64.14868 99.72488 32446 ft 536 kts 64°
2026-05-07 22:01 64.18064 99.87788 32438 ft 536 kts 64°
2026-05-07 22:01 64.21270 100.03252 32439 ft 536 kts 64°
2026-05-07 22:02 64.24459 100.18749 32438 ft 536 kts 64°
2026-05-07 22:02 64.27628 100.34264 32432 ft 536 kts 64°
2026-05-07 22:03 64.31350 100.49001 32437 ft 530 kts 49°
2026-05-07 22:03 64.36569 100.60818 32426 ft 525 kts 36°
2026-05-07 22:04 64.42172 100.71687 32424 ft 526 kts 37°
2026-05-07 22:04 64.47619 100.83038 32412 ft 527 kts 39°
2026-05-07 22:05 64.52914 100.94672 32414 ft 527 kts 40°
2026-05-07 22:05 64.58209 101.06473 32442 ft 528 kts 40°
2026-05-07 22:06 64.63507 101.18317 32401 ft 528 kts 40°
2026-05-07 22:06 64.68796 101.30215 32405 ft 528 kts 40°
2026-05-07 22:07 64.74091 101.42114 32385 ft 527 kts 40°
2026-05-07 22:07 64.79333 101.53967 32400 ft 522 kts 41°
2026-05-07 22:08 64.84537 101.65829 32402 ft 522 kts 41°
2026-05-07 22:08 64.89736 101.77725 32387 ft 522 kts 41°
2026-05-07 22:09 64.94931 101.89674 32403 ft 522 kts 41°
2026-05-07 22:09 65.00110 102.01650 32403 ft 522 kts 41°
2026-05-07 22:10 65.05284 102.13686 32392 ft 522 kts 41°
2026-05-07 22:10 65.10415 102.25689 32390 ft 522 kts 41°
2026-05-07 22:11 65.15589 102.37863 32395 ft 525 kts 41°
2026-05-07 22:11 65.20776 102.50137 32391 ft 526 kts 41°
2026-05-07 22:12 65.25928 102.62410 32371 ft 521 kts 41°
2026-05-07 22:12 65.31040 102.74650 32398 ft 521 kts 41°
2026-05-07 22:13 65.36140 102.86982 32385 ft 521 kts 42°
2026-05-07 22:13 65.41192 102.99435 32386 ft 520 kts 42°
2026-05-07 22:14 65.46251 103.11861 32367 ft 520 kts 42°
2026-05-07 22:14 65.51321 103.24297 32382 ft 520 kts 42°
2026-05-07 22:15 65.56383 103.36770 32367 ft 520 kts 42°
2026-05-07 22:15 65.61401 103.49211 32369 ft 520 kts 42°
2026-05-07 22:16 65.66444 103.61792 32365 ft 521 kts 42°
2026-05-07 22:16 65.71457 103.74381 32362 ft 516 kts 41°
2026-05-07 22:17 65.76437 103.86957 32353 ft 515 kts 42°
2026-05-07 22:17 65.81400 103.99558 32353 ft 515 kts 42°
2026-05-07 22:18 65.88832 104.18574 32354 ft 516 kts 42°
2026-05-07 22:19 65.93772 104.31359 32359 ft 518 kts 43°
2026-05-07 22:19 65.98679 104.44320 32346 ft 519 kts 43°
2026-05-07 22:20 66.03601 104.57276 32347 ft 519 kts 42°
2026-05-07 22:20 66.08541 104.70257 32355 ft 519 kts 42°
2026-05-07 22:21 66.13465 104.83250 32357 ft 519 kts 43°
2026-05-07 22:21 66.18368 104.96282 32381 ft 516 kts 42°
2026-05-07 22:22 66.23225 105.09264 32352 ft 517 kts 42°
2026-05-07 22:22 66.28100 105.22378 32363 ft 517 kts 42°
2026-05-07 22:23 66.32970 105.35559 32361 ft 517 kts 43°
2026-05-07 22:23 66.37831 105.48798 32361 ft 518 kts 43°
2026-05-07 22:24 66.42685 105.62098 32367 ft 518 kts 43°
2026-05-07 22:24 66.47522 105.75437 32369 ft 519 kts 43°
2026-05-07 22:25 66.52328 105.88951 32356 ft 520 kts 43°
2026-05-07 22:25 66.57126 106.02561 32357 ft 520 kts 43°
2026-05-07 22:26 66.61935 106.16135 32351 ft 517 kts 43°
2026-05-07 22:26 66.66718 106.29655 32352 ft 517 kts 43°
2026-05-07 22:27 66.71493 106.43228 32352 ft 516 kts 43°
2026-05-07 22:27 66.76244 106.56830 32341 ft 516 kts 43°
2026-05-07 22:28 66.80964 106.70429 32345 ft 516 kts 43°
2026-05-07 22:28 66.85692 106.84140 32346 ft 516 kts 43°
2026-05-07 22:29 66.90423 106.97947 32333 ft 516 kts 43°
2026-05-07 22:29 66.95126 107.11764 32382 ft 516 kts 44°
2026-05-07 22:30 66.99801 107.25718 32352 ft 517 kts 45°
2026-05-07 22:30 67.04397 107.39952 32345 ft 518 kts 45°
2026-05-07 22:31 67.08987 107.54180 32338 ft 518 kts 45°
2026-05-07 22:31 67.13555 107.68319 32347 ft 518 kts 45°
2026-05-07 22:32 67.18137 107.82626 32340 ft 518 kts 45°
2026-05-07 22:32 67.22707 107.97018 32354 ft 519 kts 45°
2026-05-07 22:33 67.27279 108.11458 32345 ft 519 kts 45°
2026-05-07 22:33 67.31847 108.25959 32345 ft 520 kts 46°
2026-05-07 22:34 67.36404 108.40519 32346 ft 520 kts 46°
2026-05-07 22:34 67.40943 108.55123 32342 ft 520 kts 46°
2026-05-07 22:35 67.45476 108.69805 32342 ft 520 kts 46°
2026-05-07 22:35 67.49976 108.84488 32352 ft 515 kts 46°
2026-05-07 22:36 67.54432 108.99120 32352 ft 515 kts 46°
2026-05-07 22:36 67.58882 109.13821 32351 ft 515 kts 46°
2026-05-07 22:37 67.63318 109.28578 32351 ft 515 kts 46°
2026-05-07 22:37 67.67730 109.43400 32366 ft 516 kts 47°
2026-05-07 22:38 67.72083 109.58415 32376 ft 514 kts 47°
2026-05-07 22:38 67.76435 109.73381 32366 ft 514 kts 47°
2026-05-07 22:39 67.80798 109.88321 32382 ft 514 kts 47°
2026-05-07 22:39 67.85156 110.03309 32378 ft 514 kts 47°
2026-05-07 22:40 67.89477 110.18283 32364 ft 513 kts 47°
2026-05-07 22:40 67.93804 110.33396 32375 ft 510 kts 47°
2026-05-07 22:41 67.98052 110.48337 32389 ft 509 kts 47°
2026-05-07 22:41 68.02284 110.63478 32384 ft 509 kts 48°
2026-05-07 22:42 68.06523 110.78656 32384 ft 509 kts 47°
2026-05-07 22:42 68.10764 110.93836 32387 ft 509 kts 47°
2026-05-07 22:43 68.15000 111.09074 32396 ft 510 kts 48°
2026-05-07 22:43 68.19226 111.24385 32408 ft 509 kts 48°
2026-05-07 22:44 68.23424 111.39712 32401 ft 509 kts 48°
2026-05-07 22:44 68.27614 111.55115 32399 ft 509 kts 48°
2026-05-07 22:45 68.31781 111.70549 32410 ft 505 kts 48°
2026-05-07 22:45 68.35906 111.85935 32414 ft 504 kts 48°
2026-05-07 22:46 68.40018 112.01369 32416 ft 504 kts 48°
2026-05-07 22:46 68.44110 112.16838 32425 ft 505 kts 48°
2026-05-07 22:47 68.48159 112.32343 32431 ft 506 kts 49°
2026-05-07 22:47 68.52147 112.48128 32432 ft 507 kts 51°
2026-05-07 22:48 68.55819 112.64665 32434 ft 510 kts 54°
2026-05-07 22:48 68.59317 112.81577 32448 ft 511 kts 55°
2026-05-07 22:49 68.62816 112.98536 32445 ft 511 kts 54°
2026-05-07 22:49 68.65728 113.12614 32473 ft 509 kts 54°
2026-05-07 22:50 68.69203 113.29482 32457 ft 506 kts 54°
2026-05-07 22:50 68.72662 113.46382 32469 ft 507 kts 54°
2026-05-07 22:51 68.76101 113.63334 32467 ft 507 kts 54°
2026-05-07 22:51 68.79523 113.80344 32470 ft 507 kts 54°
2026-05-07 22:52 68.82926 113.97401 32478 ft 507 kts 54°
2026-05-07 22:52 68.86317 114.14534 32495 ft 507 kts 54°
2026-05-07 22:53 68.89685 114.31692 32484 ft 507 kts 55°
2026-05-07 22:53 68.93033 114.48938 32479 ft 508 kts 56°
2026-05-07 22:54 68.96291 114.66355 32492 ft 505 kts 56°
2026-05-07 22:54 68.99539 114.83622 32493 ft 504 kts 55°
2026-05-07 22:55 69.02815 115.00905 32487 ft 504 kts 55°
2026-05-07 22:55 69.06082 115.18221 32535 ft 503 kts 55°
2026-05-07 22:56 69.09299 115.35433 32510 ft 502 kts 56°
2026-05-07 22:56 69.12536 115.52898 32511 ft 502 kts 56°
2026-05-07 22:57 69.15721 115.70228 32516 ft 503 kts 56°
2026-05-07 22:57 69.18908 115.87726 32527 ft 503 kts 56°
2026-05-07 22:58 69.22073 116.05246 32536 ft 503 kts 56°
2026-05-07 22:58 69.25216 116.22803 32588 ft 500 kts 57°
2026-05-07 22:59 69.28329 116.40333 32541 ft 500 kts 57°
2026-05-07 22:59 69.31411 116.57959 32550 ft 501 kts 58°
2026-05-07 23:00 69.34413 116.75765 32550 ft 501 kts 58°
2026-05-07 23:00 69.37438 116.93546 32564 ft 501 kts 57°
2026-05-07 23:01 69.40477 117.11304 32568 ft 500 kts 58°
2026-05-07 23:01 69.43511 117.29121 32568 ft 501 kts 58°
2026-05-07 23:02 69.46524 117.46984 32584 ft 500 kts 58°
2026-05-07 23:02 69.49515 117.64889 32595 ft 500 kts 59°
2026-05-07 23:03 69.52480 117.82807 32582 ft 499 kts 59°
2026-05-07 23:03 69.55431 118.00793 32583 ft 499 kts 59°
2026-05-07 23:04 69.58340 118.18686 32583 ft 499 kts 59°
2026-05-07 23:04 69.61254 118.36768 32594 ft 500 kts 59°
2026-05-07 23:05 69.64149 118.54905 32589 ft 500 kts 59°
2026-05-07 23:05 69.67004 118.73129 32600 ft 500 kts 60°
2026-05-07 23:06 69.69949 118.91198 32605 ft 497 kts 56°
2026-05-07 23:06 69.73259 119.08666 32607 ft 496 kts 54°
2026-05-07 23:07 69.76631 119.26003 32621 ft 495 kts 55°
2026-05-07 23:07 69.79967 119.43420 32614 ft 495 kts 55°
2026-05-07 23:08 69.83267 119.60920 32639 ft 496 kts 56°
2026-05-07 23:08 69.86537 119.78436 32631 ft 497 kts 56°
2026-05-07 23:09 69.89809 119.96111 32636 ft 497 kts 57°
2026-05-07 23:09 69.93057 120.13797 32636 ft 497 kts 57°
2026-05-07 23:10 69.96296 120.31591 32643 ft 497 kts 57°
2026-05-07 23:10 69.99516 120.49428 32648 ft 497 kts 57°
2026-05-07 23:11 70.02726 120.67359 32654 ft 498 kts 58°
2026-05-07 23:11 70.05918 120.85353 32664 ft 498 kts 58°
2026-05-07 23:12 70.09047 121.03494 32670 ft 499 kts 59°
2026-05-07 23:12 70.12125 121.21718 32659 ft 499 kts 59°
2026-05-07 23:13 70.15242 121.39947 32662 ft 499 kts 59°
2026-05-07 23:13 70.18368 121.58200 32662 ft 499 kts 59°
2026-05-07 23:14 70.21460 121.76388 32682 ft 499 kts 60°
2026-05-07 23:14 70.24553 121.94772 32673 ft 500 kts 60°
2026-05-07 23:15 70.27628 122.13225 32674 ft 500 kts 60°
2026-05-07 23:15 70.30681 122.31713 32674 ft 500 kts 60°
2026-05-07 23:16 70.33718 122.50269 32685 ft 500 kts 60°
2026-05-07 23:16 70.36738 122.68898 32683 ft 500 kts 61°
2026-05-07 23:17 70.39740 122.87584 32683 ft 500 kts 62°
2026-05-07 23:17 70.42720 123.06311 32682 ft 500 kts 62°
2026-05-07 23:18 70.45624 123.25175 32687 ft 500 kts 63°
2026-05-07 23:18 70.48486 123.44125 32689 ft 500 kts 63°
2026-05-07 23:19 70.51229 123.63148 32687 ft 502 kts 65°
2026-05-07 23:19 70.53739 123.82664 32688 ft 502 kts 66°
2026-05-07 23:20 70.56202 124.02251 32695 ft 502 kts 67°
2026-05-07 23:20 70.58665 124.21866 32690 ft 502 kts 68°
2026-05-07 23:21 70.61119 124.41504 32689 ft 502 kts 68°
2026-05-07 23:21 70.63552 124.61173 32691 ft 502 kts 68°
2026-05-07 23:22 70.65964 124.80902 32689 ft 501 kts 68°
2026-05-07 23:22 70.68353 125.00673 32693 ft 501 kts 68°
2026-05-07 23:23 70.70721 125.20479 32698 ft 501 kts 69°
2026-05-07 23:23 70.73063 125.40304 32699 ft 501 kts 69°
2026-05-07 23:24 70.75385 125.60192 32691 ft 501 kts 70°
2026-05-07 23:24 70.77684 125.80106 32688 ft 501 kts 70°
2026-05-07 23:25 70.79898 126.00170 32687 ft 501 kts 71°
2026-05-07 23:25 70.82069 126.20288 32692 ft 501 kts 71°
2026-05-07 23:26 70.84279 126.40379 32680 ft 501 kts 71°
2026-05-07 23:26 70.86493 126.60477 32689 ft 500 kts 71°
2026-05-07 23:27 70.89773 126.90682 32673 ft 500 kts 71°
2026-05-07 23:27 70.91916 127.10746 32676 ft 500 kts 71°
2026-05-07 23:28 70.94050 127.30982 32677 ft 500 kts 71°
2026-05-07 23:28 70.96162 127.51270 32676 ft 500 kts 72°
2026-05-07 23:29 70.98253 127.71599 32687 ft 501 kts 72°
2026-05-07 23:29 71.00326 127.92013 32677 ft 501 kts 72°
2026-05-07 23:30 71.02375 128.12464 32680 ft 501 kts 72°
2026-05-07 23:30 71.04383 128.33013 32679 ft 501 kts 73°
2026-05-07 23:31 71.06278 128.53630 32665 ft 501 kts 74°
2026-05-07 23:31 71.08206 128.74236 32666 ft 501 kts 73°
2026-05-07 23:32 71.10178 128.94851 32665 ft 501 kts 74°
2026-05-07 23:32 71.12136 129.15450 32668 ft 500 kts 74°
2026-05-07 23:33 71.14039 129.36114 32672 ft 500 kts 75°
2026-05-07 23:33 71.15913 129.56805 32670 ft 500 kts 75°
2026-05-07 23:34 71.17755 129.77424 32670 ft 500 kts 75°
2026-05-07 23:34 71.19279 129.94683 32667 ft 500 kts 75°
2026-05-07 23:35 71.21395 130.19001 32686 ft 500 kts 75°
2026-05-07 23:35 71.23180 130.39840 32678 ft 499 kts 76°
2026-05-07 23:36 71.24940 130.60702 32675 ft 499 kts 76°
2026-05-07 23:36 71.26637 130.81613 32675 ft 499 kts 77°
2026-05-07 23:37 71.28288 131.02572 32673 ft 499 kts 77°
2026-05-07 23:37 71.29680 131.19990 32679 ft 499 kts 77°
2026-05-07 23:38 71.31357 131.40961 32678 ft 499 kts 77°
2026-05-07 23:38 71.33016 131.61952 32679 ft 498 kts 77°
2026-05-07 23:39 71.34646 131.82949 32681 ft 498 kts 77°
2026-05-07 23:39 71.36250 132.03958 32672 ft 498 kts 78°
2026-05-07 23:40 71.37831 132.25010 32672 ft 498 kts 78°
2026-05-07 23:40 71.39390 132.46104 32677 ft 497 kts 78°
2026-05-07 23:41 71.40913 132.67071 32673 ft 496 kts 79°
2026-05-07 23:41 71.42431 132.88317 32671 ft 496 kts 79°
2026-05-07 23:42 71.43903 133.09292 32672 ft 496 kts 80°
2026-05-07 23:42 71.45323 133.30460 32671 ft 495 kts 81°
2026-05-07 23:43 71.46644 133.51685 32673 ft 495 kts 81°
2026-05-07 23:43 71.48010 133.72934 32672 ft 495 kts 81°
2026-05-07 23:44 71.49394 133.94162 32674 ft 495 kts 81°
2026-05-07 23:44 71.50760 134.15435 32657 ft 495 kts 82°
2026-05-07 23:45 71.51154 134.36792 32670 ft 486 kts 99°
2026-05-07 23:45 71.50144 134.57754 32675 ft 483 kts 104°
2026-05-07 23:46 71.48955 134.78587 32672 ft 484 kts 103°
2026-05-07 23:46 71.47871 134.99484 32674 ft 484 kts 102°
2026-05-07 23:47 71.46832 135.20398 32676 ft 484 kts 102°
2026-05-07 23:47 71.45789 135.41143 32677 ft 484 kts 102°
2026-05-07 23:48 71.44712 135.62021 32679 ft 484 kts 103°
2026-05-07 23:48 71.43613 135.82798 32684 ft 480 kts 103°
2026-05-07 23:49 71.42497 136.03418 32657 ft 480 kts 104°
2026-05-07 23:49 71.41476 136.24044 32688 ft 478 kts 102°
2026-05-07 23:50 71.40683 136.44755 32690 ft 479 kts 101°
2026-05-07 23:50 71.39945 136.65506 32689 ft 479 kts 101°
2026-05-07 23:51 71.39192 136.86097 32694 ft 479 kts 101°
2026-05-07 23:51 71.38402 137.06777 32694 ft 479 kts 102°
2026-05-07 23:52 71.37589 137.27397 32702 ft 476 kts 102°
2026-05-07 23:52 71.36755 137.47931 32704 ft 476 kts 102°
2026-05-07 23:53 71.35898 137.68442 32710 ft 476 kts 102°
2026-05-07 23:53 71.35021 137.88909 32704 ft 474 kts 103°
2026-05-07 23:54 71.34127 138.09256 32710 ft 473 kts 103°
2026-05-07 23:54 71.33212 138.29555 32711 ft 472 kts 103°
2026-05-07 23:55 71.32274 138.49841 32713 ft 472 kts 103°
2026-05-07 23:55 71.31311 138.69929 32710 ft 470 kts 104°
2026-05-07 23:56 71.30212 138.90005 32716 ft 469 kts 105°
2026-05-07 23:56 71.29135 139.10061 32712 ft 470 kts 104°
2026-05-07 23:57 71.28090 139.30164 32714 ft 470 kts 104°
2026-05-07 23:57 71.27041 139.50222 32719 ft 470 kts 104°
2026-05-07 23:58 71.25974 139.70229 32712 ft 468 kts 105°
2026-05-07 23:58 71.24883 139.90199 32716 ft 468 kts 105°
2026-05-07 23:59 71.23772 140.10106 32716 ft 468 kts 105°
2026-05-07 23:59 71.22638 140.30022 32713 ft 468 kts 105°
2026-05-08 00:00 71.21487 140.49868 32716 ft 467 kts 106°
2026-05-08 00:00 71.20322 140.69558 32719 ft 467 kts 106°
2026-05-08 00:01 71.19128 140.89354 32716 ft 467 kts 106°
2026-05-08 00:01 71.17914 141.09119 32716 ft 467 kts 106°
2026-05-08 00:02 71.16670 141.28834 32673 ft 466 kts 107°
2026-05-08 00:02 71.15308 141.48402 32699 ft 464 kts 107°
2026-05-08 00:03 71.13976 141.67907 32714 ft 464 kts 107°
2026-05-08 00:03 71.12674 141.87445 32716 ft 464 kts 107°
2026-05-08 00:04 71.11367 142.06969 32718 ft 464 kts 107°
2026-05-08 00:04 71.10042 142.26423 32717 ft 464 kts 107°
2026-05-08 00:05 71.08693 142.45892 32714 ft 464 kts 107°
2026-05-08 00:05 71.07323 142.65324 32713 ft 464 kts 108°
2026-05-08 00:06 71.05935 142.84709 32695 ft 463 kts 108°
2026-05-08 00:06 71.04531 143.04009 32684 ft 462 kts 108°
2026-05-08 00:07 71.03107 143.23271 32712 ft 461 kts 108°
2026-05-08 00:07 71.01666 143.42466 32720 ft 461 kts 108°
2026-05-08 00:08 71.00215 143.61515 32718 ft 461 kts 109°
2026-05-08 00:08 70.98716 143.80628 32722 ft 460 kts 110°
2026-05-08 00:09 70.97148 143.99644 32719 ft 461 kts 109°
2026-05-08 00:09 70.95653 144.18699 32717 ft 461 kts 109°
2026-05-08 00:10 70.94188 144.37781 32716 ft 460 kts 109°
2026-05-08 00:10 70.92716 144.56800 32719 ft 459 kts 109°
2026-05-08 00:11 70.91224 144.75763 32689 ft 459 kts 109°
2026-05-08 00:11 70.89713 144.94675 32715 ft 458 kts 110°
2026-05-08 00:12 70.88184 145.13529 32716 ft 458 kts 110°
2026-05-08 00:12 70.86633 145.32378 32717 ft 458 kts 110°
2026-05-08 00:13 70.85068 145.51154 32714 ft 457 kts 110°
2026-05-08 00:13 70.83493 145.69787 32708 ft 456 kts 110°
2026-05-08 00:14 70.81896 145.88442 32713 ft 455 kts 110°
2026-05-08 00:14 70.80280 146.07044 32717 ft 455 kts 111°
2026-05-08 00:15 70.78645 146.25630 32717 ft 455 kts 111°
2026-05-08 00:15 70.76899 146.44042 32714 ft 454 kts 112°
2026-05-08 00:16 70.75115 146.62422 32713 ft 454 kts 112°
2026-05-08 00:16 70.73369 146.80821 32719 ft 455 kts 112°
2026-05-08 00:17 70.71631 146.99202 32686 ft 454 kts 112°
2026-05-08 00:17 70.69880 147.17537 32714 ft 453 kts 112°
2026-05-08 00:18 70.68113 147.35788 32718 ft 453 kts 112°
2026-05-08 00:18 70.66327 147.54011 32716 ft 452 kts 112°
2026-05-08 00:19 70.64524 147.72189 32718 ft 452 kts 112°
2026-05-08 00:19 70.62844 147.90464 32712 ft 458 kts 105°
2026-05-08 00:20 70.62747 148.09956 32720 ft 473 kts 92°
2026-05-08 00:20 70.63458 148.29729 32717 ft 475 kts 91°
2026-05-08 00:21 70.64092 148.49386 32725 ft 473 kts 92°
2026-05-08 00:21 70.64593 148.69280 32707 ft 472 kts 93°
2026-05-08 00:22 70.65024 148.88835 32727 ft 470 kts 94°
2026-05-08 00:22 70.65434 149.08518 32736 ft 470 kts 94°
2026-05-08 00:23 70.65826 149.28198 32728 ft 471 kts 94°
2026-05-08 00:23 70.66199 149.47919 32741 ft 471 kts 94°
2026-05-08 00:24 70.66552 149.67593 32741 ft 471 kts 94°
2026-05-08 00:24 70.66884 149.87328 32740 ft 470 kts 95°
2026-05-08 00:25 70.67193 150.07023 32743 ft 470 kts 95°
2026-05-08 00:25 70.67482 150.26752 32745 ft 470 kts 95°
2026-05-08 00:26 70.67725 150.46443 32737 ft 470 kts 96°
2026-05-08 00:26 70.67834 150.62846 32753 ft 470 kts 96°
2026-05-08 00:27 70.67996 150.82598 32742 ft 470 kts 96°
2026-05-08 00:27 70.68191 151.02356 32738 ft 471 kts 96°
2026-05-08 00:28 70.68380 151.22086 32746 ft 469 kts 96°
2026-05-08 00:28 70.68547 151.41793 32752 ft 469 kts 96°
2026-05-08 00:29 70.68691 151.61462 32707 ft 468 kts 96°
2026-05-08 00:29 70.68812 151.81014 32753 ft 468 kts 96°
2026-05-08 00:30 70.68913 152.00709 32763 ft 468 kts 97°
2026-05-08 00:30 70.68993 152.20358 32763 ft 468 kts 97°
2026-05-08 00:31 70.69052 152.39982 32766 ft 468 kts 97°
2026-05-08 00:31 70.69090 152.59638 32766 ft 467 kts 97°
2026-05-08 00:32 70.69107 152.79268 32769 ft 467 kts 97°
2026-05-08 00:32 70.69068 152.98935 32775 ft 469 kts 98°
2026-05-08 00:33 70.68930 153.18638 32778 ft 469 kts 98°
2026-05-08 00:33 70.68835 153.38349 32787 ft 470 kts 98°
2026-05-08 00:34 70.68763 153.58038 32784 ft 467 kts 98°
2026-05-08 00:34 70.68677 153.77651 32785 ft 467 kts 98°
2026-05-08 00:35 70.68569 153.97243 32796 ft 467 kts 98°
2026-05-08 00:35 70.68438 154.16848 32789 ft 468 kts 98°
2026-05-08 00:36 70.68286 154.36535 32800 ft 469 kts 98°
2026-05-08 00:36 70.68115 154.56100 32809 ft 468 kts 98°
2026-05-08 00:37 70.67921 154.75769 32804 ft 468 kts 99°
2026-05-08 00:38 70.67591 155.05234 32813 ft 468 kts 99°
2026-05-08 00:38 70.67345 155.24856 32813 ft 468 kts 99°
2026-05-08 00:39 70.67067 155.44509 32808 ft 469 kts 100°
2026-05-08 00:39 70.66667 155.64126 32821 ft 469 kts 100°
2026-05-08 00:40 70.66291 155.83774 32819 ft 469 kts 99°
2026-05-08 00:40 70.65904 156.03338 32829 ft 467 kts 100°
2026-05-08 00:41 70.65482 156.22865 32829 ft 466 kts 100°
2026-05-08 00:41 70.65050 156.42255 32835 ft 466 kts 101°
2026-05-08 00:42 70.64600 156.61768 32837 ft 469 kts 100°
2026-05-08 00:42 70.64127 156.81409 32851 ft 469 kts 101°
2026-05-08 00:43 70.63636 157.00995 32851 ft 469 kts 101°
2026-05-08 00:43 70.63123 157.20573 32850 ft 469 kts 101°
2026-05-08 00:44 70.62588 157.40156 32860 ft 469 kts 101°
2026-05-08 00:44 70.62033 157.59691 32859 ft 468 kts 101°
2026-05-08 00:45 70.61457 157.79233 32840 ft 469 kts 101°
2026-05-08 00:45 70.60857 157.98815 32869 ft 470 kts 101°
2026-05-08 00:46 70.60240 158.18302 32868 ft 470 kts 102°
2026-05-08 00:46 70.59594 158.37865 32872 ft 470 kts 102°
2026-05-08 00:47 70.58824 158.57360 32873 ft 469 kts 103°
2026-05-08 00:47 70.58073 158.76842 32877 ft 470 kts 102°
2026-05-08 00:48 70.57354 158.96370 32877 ft 470 kts 102°
2026-05-08 00:48 70.56633 159.15854 32878 ft 469 kts 102°
2026-05-08 00:49 70.55891 159.35341 32884 ft 469 kts 103°
2026-05-08 00:49 70.55128 159.54770 32883 ft 469 kts 103°
2026-05-08 00:50 70.54348 159.74076 32898 ft 469 kts 103°
2026-05-08 00:50 70.53537 159.93598 32897 ft 469 kts 103°
2026-05-08 00:51 70.52716 160.12874 32895 ft 469 kts 103°
2026-05-08 00:51 70.51869 160.32248 32907 ft 469 kts 103°
2026-05-08 00:52 70.50984 160.51616 32909 ft 468 kts 103°
2026-05-08 00:52 70.50062 160.70863 32913 ft 468 kts 103°
2026-05-08 00:53 70.49182 160.90156 32911 ft 468 kts 103°
2026-05-08 00:53 70.48315 161.09446 32911 ft 468 kts 103°
2026-05-08 00:54 70.47434 161.28718 32919 ft 468 kts 103°
2026-05-08 00:54 70.46531 161.47953 32913 ft 470 kts 103°
2026-05-08 00:55 70.45599 161.67321 32926 ft 471 kts 103°
2026-05-08 00:55 70.44649 161.86658 32927 ft 471 kts 103°
2026-05-08 00:56 70.43685 162.05837 32924 ft 471 kts 104°
2026-05-08 00:56 70.42659 162.25099 32936 ft 470 kts 104°
2026-05-08 00:57 70.41627 162.44362 32935 ft 470 kts 104°
2026-05-08 00:57 70.40618 162.63642 32921 ft 472 kts 103°
2026-05-08 00:58 70.39601 162.82993 32926 ft 471 kts 104°
2026-05-08 00:58 70.38571 163.02225 32941 ft 471 kts 104°
2026-05-08 00:59 70.37518 163.21437 32940 ft 470 kts 104°
2026-05-08 00:59 70.36443 163.40639 32945 ft 470 kts 104°
2026-05-08 01:00 70.35349 163.59803 32946 ft 470 kts 104°
2026-05-08 01:00 70.34234 163.78948 32921 ft 471 kts 104°
2026-05-08 01:01 70.33093 163.98169 32953 ft 473 kts 104°
2026-05-08 01:01 70.31931 164.17393 32952 ft 473 kts 104°
2026-05-08 01:02 70.30759 164.36429 32952 ft 473 kts 104°
2026-05-08 01:02 70.29550 164.55595 32957 ft 472 kts 105°
2026-05-08 01:03 70.28224 164.74652 32960 ft 472 kts 106°
2026-05-08 01:03 70.26917 164.93695 32936 ft 472 kts 105°
2026-05-08 01:04 70.25637 165.12824 32957 ft 473 kts 105°
2026-05-08 01:04 70.24356 165.31913 32969 ft 472 kts 105°
2026-05-08 01:05 70.23058 165.50913 32967 ft 472 kts 105°
2026-05-08 01:05 70.21745 165.69793 32970 ft 472 kts 105°
2026-05-08 01:06 70.20403 165.88767 32973 ft 472 kts 105°
2026-05-08 01:06 70.19042 166.07710 32964 ft 472 kts 105°
2026-05-08 01:07 70.17656 166.26674 32981 ft 475 kts 105°
2026-05-08 01:07 70.16246 166.45688 32984 ft 475 kts 105°
2026-05-08 01:08 70.14816 166.64663 32984 ft 475 kts 105°
2026-05-08 01:08 70.13367 166.83610 32981 ft 475 kts 106°
2026-05-08 01:09 70.11857 167.02499 32977 ft 474 kts 107°
2026-05-08 01:09 70.10259 167.21255 32974 ft 474 kts 107°
2026-05-08 01:10 70.08642 167.40064 32983 ft 475 kts 107°
2026-05-08 01:10 70.07037 167.58825 32989 ft 474 kts 107°
2026-05-08 01:11 70.05435 167.77449 32990 ft 474 kts 107°
2026-05-08 01:11 70.03806 167.96143 32989 ft 474 kts 107°
2026-05-08 01:12 70.02157 168.14810 32997 ft 474 kts 107°
2026-05-08 01:12 70.00488 168.33442 32999 ft 474 kts 107°
2026-05-08 01:13 69.98795 168.52091 32994 ft 476 kts 107°
2026-05-08 01:13 69.97050 168.70738 33000 ft 476 kts 108°
2026-05-08 01:14 69.95283 168.89351 32999 ft 477 kts 108°
2026-05-08 01:14 69.93533 169.07981 33012 ft 477 kts 108°
2026-05-08 01:15 69.91781 169.26584 33010 ft 477 kts 108°
2026-05-08 01:15 69.90313 169.42014 33007 ft 476 kts 108°
2026-05-08 01:16 69.88524 169.60581 33011 ft 477 kts 108°
2026-05-08 01:16 69.86714 169.79121 33015 ft 477 kts 108°
2026-05-08 01:17 69.84887 169.97619 33015 ft 477 kts 108°
2026-05-08 01:17 69.83036 170.16114 33015 ft 477 kts 108°
2026-05-08 01:18 69.81169 170.34555 33017 ft 477 kts 109°
2026-05-08 01:18 69.79281 170.52980 33021 ft 477 kts 109°
2026-05-08 01:19 69.77680 170.71494 33018 ft 479 kts 103°
2026-05-08 01:19 69.76500 170.90442 33032 ft 479 kts 102°
2026-05-08 01:20 69.75389 171.09411 33034 ft 479 kts 102°
2026-05-08 01:20 69.74235 171.28373 33035 ft 479 kts 102°
2026-05-08 01:21 69.73049 171.47190 33035 ft 479 kts 103°
2026-05-08 01:21 69.71826 171.66177 33043 ft 479 kts 103°
2026-05-08 01:22 69.70555 171.85062 33043 ft 481 kts 103°
2026-05-08 01:22 69.69252 172.03869 33048 ft 482 kts 103°
2026-05-08 01:23 69.67951 172.22797 33045 ft 482 kts 103°
2026-05-08 01:23 69.66646 172.41668 33044 ft 481 kts 103°
2026-05-08 01:24 69.65322 172.60536 33044 ft 481 kts 103°
2026-05-08 01:24 69.63980 172.79331 33052 ft 481 kts 103°
2026-05-08 01:25 69.62609 172.98203 33050 ft 484 kts 103°
2026-05-08 01:25 69.61216 173.17097 33066 ft 484 kts 104°
2026-05-08 01:26 69.59799 173.36008 33054 ft 485 kts 104°
2026-05-08 01:26 69.58364 173.54860 33064 ft 485 kts 104°
2026-05-08 01:27 69.56907 173.73702 33060 ft 485 kts 104°
2026-05-08 01:27 69.55428 173.92546 33067 ft 487 kts 104°
2026-05-08 01:28 69.53898 174.11446 33071 ft 488 kts 105°
2026-05-08 01:28 69.52267 174.30263 33076 ft 488 kts 105°
2026-05-08 01:29 69.50669 174.49108 33071 ft 488 kts 105°
2026-05-08 01:29 69.49090 174.67982 33076 ft 488 kts 105°
2026-05-08 01:30 69.47513 174.86691 33087 ft 488 kts 105°
2026-05-08 01:30 69.45902 175.05517 33087 ft 491 kts 104°
2026-05-08 01:31 69.44262 175.24400 33087 ft 491 kts 105°
2026-05-08 01:31 69.42603 175.43225 33086 ft 491 kts 105°
2026-05-08 01:32 69.40923 175.62024 33088 ft 491 kts 105°
2026-05-08 01:32 69.39222 175.80805 33089 ft 491 kts 105°
2026-05-08 01:33 69.37503 175.99537 33094 ft 492 kts 105°
2026-05-08 01:33 69.35753 176.18348 33096 ft 494 kts 105°
2026-05-08 01:34 69.33922 176.37081 33096 ft 494 kts 106°
2026-05-08 01:34 69.32081 176.55824 33098 ft 494 kts 106°
2026-05-08 01:35 69.30254 176.74541 33094 ft 494 kts 106°
2026-05-08 01:35 69.28418 176.93219 33100 ft 494 kts 106°
2026-05-08 01:36 69.26558 177.11899 33101 ft 496 kts 106°
2026-05-08 01:36 69.24669 177.30628 33100 ft 496 kts 106°
2026-05-08 01:37 69.22772 177.49194 33098 ft 496 kts 106°
2026-05-08 01:37 69.20841 177.67867 33103 ft 496 kts 107°
2026-05-08 01:38 69.18881 177.86476 33105 ft 496 kts 107°
2026-05-08 01:38 69.16850 178.05012 33105 ft 497 kts 107°
2026-05-08 01:39 69.14827 178.23607 33110 ft 498 kts 107°
2026-05-08 01:39 69.12818 178.42163 33115 ft 498 kts 107°
2026-05-08 01:40 69.10791 178.60746 33109 ft 498 kts 107°
2026-05-08 01:40 69.08744 178.79275 33108 ft 498 kts 107°
2026-05-08 01:41 69.06689 178.97654 33115 ft 498 kts 107°
2026-05-08 01:41 69.04600 179.16120 33113 ft 499 kts 107°
2026-05-08 01:42 69.02486 179.34592 33114 ft 499 kts 107°
2026-05-08 01:42 69.00355 179.53005 33116 ft 499 kts 107°
2026-05-08 01:43 68.98201 179.71407 33123 ft 499 kts 107°
2026-05-08 01:43 68.96030 179.89756 33121 ft 499 kts 108°
2026-05-08 01:44 68.93820 -179.91933 33129 ft 499 kts 108°
2026-05-08 01:44 68.91511 -179.73737 33127 ft 499 kts 108°
2026-05-08 01:45 68.89229 -179.55520 33128 ft 499 kts 108°
2026-05-08 01:45 68.86929 -179.37360 33128 ft 500 kts 109°
2026-05-08 01:46 68.84462 -179.19359 33127 ft 500 kts 110°
2026-05-08 01:46 68.81949 -179.01404 33126 ft 500 kts 110°
2026-05-08 01:47 68.79434 -178.83486 33125 ft 500 kts 110°
2026-05-08 01:47 68.76905 -178.65575 33132 ft 500 kts 110°
2026-05-08 01:48 68.73097 -178.38917 33138 ft 500 kts 111°
2026-05-08 01:48 68.70507 -178.21007 33132 ft 500 kts 111°
2026-05-08 01:49 68.67929 -178.03353 33155 ft 500 kts 110°
2026-05-08 01:49 68.65314 -177.85613 33138 ft 501 kts 111°
2026-05-08 01:50 68.62685 -177.67944 33134 ft 501 kts 111°
2026-05-08 01:50 68.60070 -177.50264 33149 ft 500 kts 109°
2026-05-08 01:51 68.57947 -177.32161 33150 ft 499 kts 104°
2026-05-08 01:51 68.56098 -177.13864 33150 ft 499 kts 103°
2026-05-08 01:52 68.54248 -176.95600 33156 ft 499 kts 104°
2026-05-08 01:52 68.52347 -176.77376 33167 ft 499 kts 104°
2026-05-08 01:53 68.50413 -176.59202 33166 ft 499 kts 104°
2026-05-08 01:53 68.48457 -176.41055 33182 ft 499 kts 104°
2026-05-08 01:54 68.46481 -176.22919 33188 ft 499 kts 104°
2026-05-08 01:54 68.44502 -176.04961 33202 ft 499 kts 104°
2026-05-08 01:55 68.42489 -175.86905 33198 ft 499 kts 105°
2026-05-08 01:55 68.40455 -175.68860 33208 ft 499 kts 105°
2026-05-08 01:56 68.38400 -175.50845 33210 ft 499 kts 105°
2026-05-08 01:56 68.36264 -175.32900 33219 ft 500 kts 106°
2026-05-08 01:57 68.34094 -175.15031 33235 ft 500 kts 105°
2026-05-08 01:57 68.31958 -174.97141 33228 ft 499 kts 105°
2026-05-08 01:58 68.29825 -174.79253 33227 ft 500 kts 105°
2026-05-08 01:58 68.27679 -174.61427 33235 ft 500 kts 106°
2026-05-08 01:59 68.25506 -174.43593 33235 ft 500 kts 106°
2026-05-08 01:59 68.23315 -174.25815 33235 ft 500 kts 106°
2026-05-08 02:00 68.21117 -174.08159 33253 ft 501 kts 106°
2026-05-08 02:00 68.18881 -173.90393 33250 ft 501 kts 106°
2026-05-08 02:01 68.16628 -173.72673 33255 ft 501 kts 106°
2026-05-08 02:01 68.14353 -173.54969 33255 ft 501 kts 107°
2026-05-08 02:02 68.12061 -173.37311 33266 ft 501 kts 107°
2026-05-08 02:02 68.09680 -173.19735 33269 ft 502 kts 107°
2026-05-08 02:03 68.07271 -173.02170 33267 ft 502 kts 107°
2026-05-08 02:03 68.04890 -172.84614 33262 ft 502 kts 107°
2026-05-08 02:04 68.02512 -172.67112 33271 ft 501 kts 107°
2026-05-08 02:04 68.00531 -172.52583 33274 ft 501 kts 107°
2026-05-08 02:05 67.98123 -172.35152 33281 ft 501 kts 107°
2026-05-08 02:05 67.95686 -172.17758 33285 ft 501 kts 107°
2026-05-08 02:06 67.93244 -172.00391 33281 ft 501 kts 107°
2026-05-08 02:06 67.90787 -171.83038 33276 ft 501 kts 108°
2026-05-08 02:07 67.88328 -171.65831 33281 ft 502 kts 108°
2026-05-08 02:07 67.85835 -171.48554 33307 ft 502 kts 108°
2026-05-08 02:08 67.83325 -171.31323 33286 ft 502 kts 108°
2026-05-08 02:08 67.80794 -171.14100 33285 ft 502 kts 108°
2026-05-08 02:09 67.78243 -170.96908 33285 ft 502 kts 108°
2026-05-08 02:09 67.75673 -170.79747 33283 ft 502 kts 108°
2026-05-08 02:10 67.73083 -170.62619 33289 ft 502 kts 108°
2026-05-08 02:10 67.70480 -170.45552 33286 ft 502 kts 108°
2026-05-08 02:11 67.67802 -170.28570 33287 ft 503 kts 109°
2026-05-08 02:11 67.65086 -170.11636 33287 ft 502 kts 109°
2026-05-08 02:12 67.62422 -169.94808 33284 ft 502 kts 109°
2026-05-08 02:12 67.59748 -169.77887 33284 ft 502 kts 109°
2026-05-08 02:13 67.57057 -169.60992 33284 ft 502 kts 109°
2026-05-08 02:13 67.54347 -169.44146 33282 ft 503 kts 109°
2026-05-08 02:14 67.51615 -169.27317 33278 ft 503 kts 109°
2026-05-08 02:14 67.48868 -169.10545 33275 ft 501 kts 109°
2026-05-08 02:15 67.46283 -168.93717 33283 ft 497 kts 102°
2026-05-08 02:15 67.44808 -168.76237 33284 ft 492 kts 95°
2026-05-08 02:16 67.43722 -168.58752 33279 ft 492 kts 95°
2026-05-08 02:16 67.42572 -168.41181 33275 ft 492 kts 95°
2026-05-08 02:17 67.41339 -168.23670 33277 ft 492 kts 96°
2026-05-08 02:17 67.40065 -168.06179 33273 ft 492 kts 96°
2026-05-08 02:18 67.38772 -167.88700 33276 ft 491 kts 96°
2026-05-08 02:18 67.37466 -167.71279 33265 ft 491 kts 96°
2026-05-08 02:19 67.36142 -167.53869 33268 ft 492 kts 96°
2026-05-08 02:19 67.34798 -167.36460 33262 ft 492 kts 96°
2026-05-08 02:20 67.33435 -167.19077 33262 ft 492 kts 97°
2026-05-08 02:20 67.32054 -167.01734 33277 ft 491 kts 96°
2026-05-08 02:21 67.30648 -166.84434 33261 ft 491 kts 97°
2026-05-08 02:21 67.29140 -166.67192 33251 ft 491 kts 97°
2026-05-08 02:22 67.27650 -166.49945 33252 ft 491 kts 97°
2026-05-08 02:22 67.26186 -166.32691 33256 ft 491 kts 97°
2026-05-08 02:23 67.24726 -166.15574 33270 ft 490 kts 97°
2026-05-08 02:23 67.23243 -165.98442 33247 ft 489 kts 97°
2026-05-08 02:24 67.21741 -165.81317 33249 ft 489 kts 97°
2026-05-08 02:24 67.20223 -165.64250 33246 ft 489 kts 97°
2026-05-08 02:25 67.18683 -165.47167 33246 ft 489 kts 97°
2026-05-08 02:25 67.17126 -165.30117 33283 ft 489 kts 97°
2026-05-08 02:26 67.15553 -165.13135 33239 ft 487 kts 97°
2026-05-08 02:26 67.13965 -164.96178 33233 ft 487 kts 97°
2026-05-08 02:27 67.12359 -164.79250 33232 ft 487 kts 98°
2026-05-08 02:27 67.10664 -164.62474 33233 ft 488 kts 99°
2026-05-08 02:28 67.08944 -164.45511 33230 ft 488 kts 98°
2026-05-08 02:28 67.07278 -164.28784 33231 ft 486 kts 98°
2026-05-08 02:29 67.05607 -164.11986 33226 ft 486 kts 98°
2026-05-08 02:29 67.03920 -163.95220 33222 ft 486 kts 98°
2026-05-08 02:30 67.02213 -163.78479 33233 ft 486 kts 98°
2026-05-08 02:30 67.00484 -163.61734 33223 ft 487 kts 98°
2026-05-08 02:31 66.98739 -163.45046 33229 ft 485 kts 98°
2026-05-08 02:31 66.96984 -163.28428 33222 ft 484 kts 98°
2026-05-08 02:32 66.95211 -163.11826 33211 ft 485 kts 99°
2026-05-08 02:32 66.93418 -162.95223 33206 ft 485 kts 99°
2026-05-08 02:33 66.91621 -162.78771 33202 ft 485 kts 99°
2026-05-08 02:33 66.89708 -162.62288 33203 ft 486 kts 103°
2026-05-08 02:34 66.86562 -162.46872 33204 ft 501 kts 120°
2026-05-08 02:34 66.82054 -162.33182 33206 ft 507 kts 126°
2026-05-08 02:35 66.77378 -162.19818 33212 ft 506 kts 125°
2026-05-08 02:35 66.72808 -162.06281 33213 ft 505 kts 124°
2026-05-08 02:36 66.68287 -161.92655 33254 ft 505 kts 124°
2026-05-08 02:36 66.63788 -161.79134 33214 ft 504 kts 124°
2026-05-08 02:37 66.59254 -161.65614 33215 ft 504 kts 124°
2026-05-08 02:37 66.54713 -161.52173 33215 ft 504 kts 124°
2026-05-08 02:38 66.50189 -161.38867 33206 ft 504 kts 124°
2026-05-08 02:38 66.45625 -161.25526 33207 ft 505 kts 125°
2026-05-08 02:39 66.41048 -161.12225 33208 ft 505 kts 125°
2026-05-08 02:39 66.36463 -160.98986 33206 ft 506 kts 125°
2026-05-08 02:40 66.31824 -160.85798 33206 ft 506 kts 126°
2026-05-08 02:40 66.27147 -160.72714 33204 ft 506 kts 126°
2026-05-08 02:41 66.22490 -160.59599 33203 ft 506 kts 126°
2026-05-08 02:41 66.17850 -160.46529 33207 ft 505 kts 126°
2026-05-08 02:42 66.13211 -160.33525 33200 ft 505 kts 126°
2026-05-08 02:42 66.08556 -160.20558 33190 ft 504 kts 126°
2026-05-08 02:43 66.03891 -160.07648 33198 ft 504 kts 126°
2026-05-08 02:43 65.99215 -159.94783 33198 ft 505 kts 126°
2026-05-08 02:44 65.94528 -159.81966 33207 ft 503 kts 127°
2026-05-08 02:44 65.89852 -159.69258 33193 ft 502 kts 127°
2026-05-08 02:45 65.85197 -159.56674 33194 ft 503 kts 127°
2026-05-08 02:45 65.80493 -159.44034 33121 ft 504 kts 127°
2026-05-08 02:46 65.75728 -159.31468 33119 ft 505 kts 128°
2026-05-08 02:46 65.70946 -159.18978 33114 ft 504 kts 128°
2026-05-08 02:47 65.66199 -159.06513 33090 ft 503 kts 128°
2026-05-08 02:47 65.61455 -158.94057 33047 ft 503 kts 128°
2026-05-08 02:48 65.56707 -158.81655 33046 ft 503 kts 128°
2026-05-08 02:48 65.51947 -158.69306 33027 ft 503 kts 128°
2026-05-08 02:49 65.47171 -158.56985 33071 ft 503 kts 129°
2026-05-08 02:49 65.42401 -158.44753 33024 ft 500 kts 129°
2026-05-08 02:50 65.37628 -158.32585 33009 ft 500 kts 129°
2026-05-08 02:50 65.32881 -158.20547 33005 ft 500 kts 130°
2026-05-08 02:51 65.28085 -158.08454 32980 ft 502 kts 130°
2026-05-08 02:51 65.23264 -157.96366 32980 ft 503 kts 130°
2026-05-08 02:52 65.18405 -157.84425 32987 ft 501 kts 131°
2026-05-08 02:52 65.14330 -157.74480 32983 ft 500 kts 131°
2026-05-08 02:53 65.09522 -157.62681 32996 ft 500 kts 131°
2026-05-08 02:53 65.04682 -157.50804 32996 ft 500 kts 131°
2026-05-08 02:54 64.99840 -157.38981 33071 ft 500 kts 131°
2026-05-08 02:54 64.94985 -157.27199 33105 ft 499 kts 132°
2026-05-08 02:55 64.87748 -157.09763 33141 ft 498 kts 133°
2026-05-08 02:56 64.82816 -156.98312 33144 ft 498 kts 134°
2026-05-08 02:56 64.77835 -156.87008 33147 ft 498 kts 134°
2026-05-08 02:57 64.72847 -156.75693 33146 ft 500 kts 134°
2026-05-08 02:57 64.67853 -156.64380 33151 ft 498 kts 135°
2026-05-08 02:58 64.62872 -156.53146 33152 ft 498 kts 135°
2026-05-08 02:58 64.57875 -156.41940 33142 ft 498 kts 135°
2026-05-08 02:59 64.52873 -156.30785 33144 ft 498 kts 135°
2026-05-08 02:59 64.47867 -156.19680 33132 ft 498 kts 135°
2026-05-08 03:00 64.42890 -156.08693 33136 ft 497 kts 136°
2026-05-08 03:00 64.37870 -155.97678 33130 ft 497 kts 136°
2026-05-08 03:01 64.32849 -155.86718 33130 ft 496 kts 136°
2026-05-08 03:01 64.27820 -155.75795 33117 ft 496 kts 136°
2026-05-08 03:02 64.22755 -155.65011 33112 ft 496 kts 137°
2026-05-08 03:02 64.17677 -155.54234 33103 ft 497 kts 138°
2026-05-08 03:03 64.12628 -155.43471 33107 ft 496 kts 138°
2026-05-08 03:03 64.07571 -155.32713 33107 ft 496 kts 138°
2026-05-08 03:04 64.02511 -155.22003 33105 ft 496 kts 138°
2026-05-08 03:04 63.97472 -155.11395 33097 ft 496 kts 138°
2026-05-08 03:05 63.92363 -155.00699 33094 ft 496 kts 138°
2026-05-08 03:05 63.87314 -154.90181 33092 ft 496 kts 138°
2026-05-08 03:06 63.82190 -154.79563 33094 ft 496 kts 138°
2026-05-08 03:06 63.77125 -154.69119 33091 ft 496 kts 138°
2026-05-08 03:07 63.72021 -154.58649 33086 ft 496 kts 139°
2026-05-08 03:07 63.66905 -154.48208 33086 ft 496 kts 139°
2026-05-08 03:08 63.61753 -154.37884 33073 ft 496 kts 140°
2026-05-08 03:08 63.56588 -154.27580 33076 ft 496 kts 140°
2026-05-08 03:09 63.51438 -154.17261 33068 ft 496 kts 140°
2026-05-08 03:09 63.46333 -154.07048 33064 ft 496 kts 140°
2026-05-08 03:10 63.41177 -153.96783 33057 ft 496 kts 140°
2026-05-08 03:10 63.36023 -153.86577 33053 ft 495 kts 140°
2026-05-08 03:11 63.30855 -153.76396 33047 ft 495 kts 140°
2026-05-08 03:11 63.25693 -153.66278 33044 ft 495 kts 141°
2026-05-08 03:12 63.20522 -153.56192 33041 ft 495 kts 141°
2026-05-08 03:12 63.15346 -153.46147 33039 ft 495 kts 141°
2026-05-08 03:13 63.10157 -153.36125 33013 ft 494 kts 141°
2026-05-08 03:13 63.04975 -153.26169 33031 ft 495 kts 141°
2026-05-08 03:14 62.99783 -153.16347 33028 ft 495 kts 142°
2026-05-08 03:14 62.94537 -153.06396 33026 ft 495 kts 141°
2026-05-08 03:15 62.89336 -152.96510 33026 ft 495 kts 141°
2026-05-08 03:15 62.84135 -152.86634 33011 ft 494 kts 142°
2026-05-08 03:16 62.79006 -152.76827 33028 ft 493 kts 142°
2026-05-08 03:16 62.73850 -152.66968 33030 ft 493 kts 142°
2026-05-08 03:17 62.68692 -152.57132 33038 ft 493 kts 142°
2026-05-08 03:17 62.63522 -152.47306 33033 ft 493 kts 142°
2026-05-08 03:18 62.58353 -152.37507 33034 ft 492 kts 142°
2026-05-08 03:18 62.53221 -152.27702 33039 ft 492 kts 142°
2026-05-08 03:19 62.48095 -152.17902 33041 ft 492 kts 142°
2026-05-08 03:19 62.42968 -152.08121 33039 ft 492 kts 142°
2026-05-08 03:20 62.37839 -151.98361 33028 ft 492 kts 142°
2026-05-08 03:20 62.32709 -151.88622 33013 ft 491 kts 142°
2026-05-08 03:21 62.27617 -151.78889 33021 ft 490 kts 142°
2026-05-08 03:21 62.22529 -151.69155 33023 ft 490 kts 142°
2026-05-08 03:22 62.17444 -151.59447 33026 ft 490 kts 142°
2026-05-08 03:22 62.12353 -151.49757 33025 ft 490 kts 142°
2026-05-08 03:23 62.07292 -151.40148 33016 ft 489 kts 142°
2026-05-08 03:23 62.02233 -151.30467 33035 ft 489 kts 142°
2026-05-08 03:24 61.97179 -151.20775 33039 ft 489 kts 142°
2026-05-08 03:24 61.92136 -151.11093 33028 ft 490 kts 142°
2026-05-08 03:25 61.87088 -151.01394 33042 ft 490 kts 142°
2026-05-08 03:25 61.82041 -150.91711 33016 ft 490 kts 142°
2026-05-08 03:26 61.76994 -150.82004 33041 ft 490 kts 142°
2026-05-08 03:26 61.71954 -150.72317 33042 ft 490 kts 142°
2026-05-08 03:27 61.66907 -150.62642 33044 ft 490 kts 142°
2026-05-08 03:27 61.61862 -150.53002 33043 ft 490 kts 142°
2026-05-08 03:28 61.56813 -150.43382 33015 ft 489 kts 142°
2026-05-08 03:28 61.51789 -150.33792 33039 ft 488 kts 142°
2026-05-08 03:29 61.46765 -150.24213 33039 ft 488 kts 142°
2026-05-08 03:29 61.41746 -150.14670 33046 ft 488 kts 142°
2026-05-08 03:30 61.34218 -150.00400 33038 ft 488 kts 142°
2026-05-08 03:31 61.24192 -149.81370 33017 ft 488 kts 143°
2026-05-08 03:32 61.16666 -149.67120 33049 ft 488 kts 143°
2026-05-08 03:32 61.11647 -149.57647 33051 ft 488 kts 143°
2026-05-08 03:33 61.06657 -149.48254 33049 ft 487 kts 143°
2026-05-08 03:33 61.01653 -149.38866 33053 ft 486 kts 143°
2026-05-08 03:34 60.96637 -149.29486 33069 ft 486 kts 143°
2026-05-08 03:34 60.91621 -149.20130 33073 ft 486 kts 143°
2026-05-08 03:35 60.86611 -149.10805 33088 ft 486 kts 143°
2026-05-08 03:35 60.81601 -149.01500 33079 ft 485 kts 143°
2026-05-08 03:36 60.76603 -148.92222 33092 ft 485 kts 143°
2026-05-08 03:36 60.71605 -148.82969 33091 ft 485 kts 143°
2026-05-08 03:37 60.66603 -148.73744 33095 ft 484 kts 143°
2026-05-08 03:37 60.61606 -148.64534 33095 ft 484 kts 143°
2026-05-08 03:38 60.56624 -148.55338 33089 ft 483 kts 143°
2026-05-08 03:38 60.51677 -148.46123 33099 ft 482 kts 143°
2026-05-08 03:39 60.46734 -148.36917 33110 ft 482 kts 143°
2026-05-08 03:39 60.41791 -148.27739 33100 ft 482 kts 143°
2026-05-08 03:40 60.36873 -148.18628 33101 ft 482 kts 143°
2026-05-08 03:40 60.32737 -148.10932 33096 ft 482 kts 143°
2026-05-08 03:41 60.27857 -148.01762 33094 ft 482 kts 143°
2026-05-08 03:41 60.22127 -147.90981 33097 ft 482 kts 143°
2026-05-08 03:42 60.17223 -147.81772 33101 ft 482 kts 143°
2026-05-08 03:42 60.13146 -147.74130 33097 ft 482 kts 143°
2026-05-08 03:43 60.08262 -147.64921 33093 ft 482 kts 143°
2026-05-08 03:43 60.03406 -147.55675 33099 ft 482 kts 143°
2026-05-08 03:44 59.98561 -147.46431 33104 ft 480 kts 143°
2026-05-08 03:44 59.93736 -147.37221 33102 ft 480 kts 143°
2026-05-08 03:45 59.88916 -147.28035 33047 ft 480 kts 144°
2026-05-08 03:45 59.84140 -147.18809 33095 ft 478 kts 143°
2026-05-08 03:46 59.79398 -147.09544 33096 ft 478 kts 143°
2026-05-08 03:46 59.74657 -147.00283 33096 ft 478 kts 143°
2026-05-08 03:47 59.69913 -146.91034 33101 ft 478 kts 143°
2026-05-08 03:47 59.65174 -146.81809 33080 ft 478 kts 144°
2026-05-08 03:48 59.60460 -146.72512 33103 ft 479 kts 143°
2026-05-08 03:48 59.55760 -146.63191 33111 ft 479 kts 143°
2026-05-08 03:49 59.51093 -146.53946 33105 ft 478 kts 143°
2026-05-08 03:49 59.46400 -146.44667 33112 ft 478 kts 143°
2026-05-08 03:50 59.41712 -146.35391 33094 ft 479 kts 144°
2026-05-08 03:50 59.37040 -146.26038 33108 ft 479 kts 144°
2026-05-08 03:51 59.32383 -146.16698 33093 ft 479 kts 144°
2026-05-08 03:51 59.27717 -146.07358 33087 ft 479 kts 144°
2026-05-08 03:52 59.23060 -145.98056 33086 ft 478 kts 144°
2026-05-08 03:52 59.18422 -145.88800 33084 ft 477 kts 144°
2026-05-08 03:53 59.13789 -145.79529 33090 ft 477 kts 144°
2026-05-08 03:53 59.09165 -145.70287 33088 ft 477 kts 144°
2026-05-08 03:54 59.04565 -145.61112 33092 ft 477 kts 144°
2026-05-08 03:54 58.99947 -145.51921 33092 ft 477 kts 144°
2026-05-08 03:55 58.95306 -145.42703 33084 ft 477 kts 144°
2026-05-08 03:55 58.90674 -145.33523 33084 ft 476 kts 144°
2026-05-08 03:56 58.86041 -145.24362 33088 ft 476 kts 144°
2026-05-08 03:56 58.81399 -145.15201 33090 ft 476 kts 144°
2026-05-08 03:57 58.76794 -145.06144 33075 ft 476 kts 144°
2026-05-08 03:57 58.72136 -144.97108 33085 ft 475 kts 144°
2026-05-08 03:58 58.67472 -144.88116 33086 ft 475 kts 144°
2026-05-08 03:58 58.62805 -144.79143 33089 ft 475 kts 144°
2026-05-08 03:59 58.58131 -144.70175 33086 ft 475 kts 144°
2026-05-08 03:59 58.53451 -144.61255 33076 ft 474 kts 144°
2026-05-08 04:00 58.48750 -144.52407 33080 ft 474 kts 144°
2026-05-08 04:00 58.44050 -144.43595 33083 ft 474 kts 144°
2026-05-08 04:01 58.39342 -144.34786 33070 ft 474 kts 144°
2026-05-08 04:01 58.34639 -144.26063 33040 ft 471 kts 143°
2026-05-08 04:02 58.29914 -144.17449 33081 ft 470 kts 144°
2026-05-08 04:02 58.25178 -144.08909 33076 ft 469 kts 144°
2026-05-08 04:03 58.20468 -144.00448 33076 ft 469 kts 144°
2026-05-08 04:03 58.13356 -143.87703 33069 ft 469 kts 144°
2026-05-08 04:04 58.08572 -143.79202 33074 ft 469 kts 144°
2026-05-08 04:04 58.03833 -143.70878 33081 ft 468 kts 144°
2026-05-08 04:05 57.99052 -143.62511 33082 ft 468 kts 144°
2026-05-08 04:05 57.94277 -143.54170 33087 ft 468 kts 144°
2026-05-08 04:06 57.89499 -143.45840 33047 ft 468 kts 143°
2026-05-08 04:06 57.84704 -143.37606 33080 ft 466 kts 144°
2026-05-08 04:07 57.79899 -143.29449 33084 ft 466 kts 144°
2026-05-08 04:07 57.75089 -143.21309 33083 ft 466 kts 144°
2026-05-08 04:08 57.70281 -143.13190 33081 ft 466 kts 144°
2026-05-08 04:08 57.65477 -143.05106 33077 ft 464 kts 144°
2026-05-08 04:09 57.60661 -142.97113 33084 ft 462 kts 144°
2026-05-08 04:09 57.55860 -142.89202 33080 ft 460 kts 144°
2026-05-08 04:10 57.51054 -142.81353 33085 ft 460 kts 144°
2026-05-08 04:10 57.46270 -142.73568 33082 ft 460 kts 144°
2026-05-08 04:11 57.41447 -142.65767 33079 ft 459 kts 144°
2026-05-08 04:11 57.36613 -142.58041 33084 ft 459 kts 144°
2026-05-08 04:12 57.31774 -142.50337 33081 ft 459 kts 144°
2026-05-08 04:12 57.26931 -142.42644 33077 ft 459 kts 144°
2026-05-08 04:13 57.22090 -142.34967 33047 ft 459 kts 144°
2026-05-08 04:13 57.17236 -142.27329 33077 ft 458 kts 144°
2026-05-08 04:14 57.12379 -142.19746 33080 ft 458 kts 144°
2026-05-08 04:14 57.07513 -142.12168 33081 ft 458 kts 144°
2026-05-08 04:15 57.02653 -142.04612 33080 ft 458 kts 144°
2026-05-08 04:15 56.97788 -141.97059 33062 ft 458 kts 144°
2026-05-08 04:16 56.92918 -141.89551 33076 ft 457 kts 144°
2026-05-08 04:16 56.88047 -141.82075 33075 ft 457 kts 144°
2026-05-08 04:17 56.83167 -141.74601 33075 ft 457 kts 144°
2026-05-08 04:17 56.78293 -141.67174 33075 ft 455 kts 144°
2026-05-08 04:18 56.73442 -141.59867 33075 ft 455 kts 144°
2026-05-08 04:18 56.68561 -141.52543 33078 ft 455 kts 144°
2026-05-08 04:19 56.63676 -141.45227 33070 ft 455 kts 144°
2026-05-08 04:19 56.58795 -141.37932 33071 ft 455 kts 144°
2026-05-08 04:20 56.53912 -141.30645 33072 ft 455 kts 144°
2026-05-08 04:20 56.49030 -141.23390 33070 ft 453 kts 144°
2026-05-08 04:21 56.44158 -141.16191 33069 ft 452 kts 144°
2026-05-08 04:21 56.39275 -141.08990 33071 ft 452 kts 144°
2026-05-08 04:22 56.34400 -141.01811 33071 ft 452 kts 144°
2026-05-08 04:22 56.29526 -140.94650 33052 ft 452 kts 144°
2026-05-08 04:23 56.24650 -140.87522 33067 ft 451 kts 144°
2026-05-08 04:23 56.19782 -140.80430 33067 ft 451 kts 144°
2026-05-08 04:24 56.14908 -140.73342 33070 ft 451 kts 144°
2026-05-08 04:24 56.10042 -140.66276 33070 ft 451 kts 144°
2026-05-08 04:25 56.05270 -140.59354 33066 ft 442 kts 144°
2026-05-08 04:25 56.00507 -140.52511 33064 ft 437 kts 144°
2026-05-08 04:26 55.98215 -140.49222 33045 ft 411 kts 144°
2026-05-08 04:26 55.96044 -140.46090 32699 ft 394 kts 144°
2026-05-08 04:26 55.93914 -140.43022 31473 ft 397 kts 144°
2026-05-08 04:26 55.91712 -140.39888 29648 ft 415 kts 144°
2026-05-08 04:27 55.89391 -140.36638 27907 ft 428 kts 144°
2026-05-08 04:27 55.87063 -140.33421 27214 ft 415 kts 145°
2026-05-08 04:27 55.84856 -140.30392 27101 ft 389 kts 145°
2026-05-08 04:27 55.82766 -140.27534 26692 ft 372 kts 145°
2026-05-08 04:28 55.80707 -140.24739 25724 ft 372 kts 146°
2026-05-08 04:28 55.78613 -140.21929 24392 ft 384 kts 146°
2026-05-08 04:28 55.76447 -140.19059 23141 ft 391 kts 146°
2026-05-08 04:28 55.74274 -140.16211 22428 ft 381 kts 146°
2026-05-08 04:29 55.72197 -140.13509 22136 ft 360 kts 146°
2026-05-08 04:29 55.70215 -140.10946 21620 ft 348 kts 146°
2026-05-08 04:29 55.68255 -140.08437 20702 ft 348 kts 147°
2026-05-08 04:29 55.66945 -140.06773 19953 ft 352 kts 147°
2026-05-08 04:30 55.64938 -140.04246 18969 ft 355 kts 147°
2026-05-08 04:30 55.62940 -140.01750 18356 ft 346 kts 147°
2026-05-08 04:30 55.61017 -139.99361 17908 ft 330 kts 147°
2026-05-08 04:30 55.59159 -139.97078 17243 ft 322 kts 147°
2026-05-08 04:31 55.57305 -139.94833 16221 ft 326 kts 147°
2026-05-08 04:31 55.55403 -139.92568 15165 ft 332 kts 147°
2026-05-08 04:31 55.53477 -139.90310 14434 ft 328 kts 148°
2026-05-08 04:31 55.51604 -139.88146 13980 ft 315 kts 148°
2026-05-08 04:32 55.49793 -139.86082 13386 ft 307 kts 148°
2026-05-08 04:32 55.48001 -139.84064 12606 ft 305 kts 149°
2026-05-08 04:32 55.46205 -139.82061 11743 ft 306 kts 149°
2026-05-08 04:32 55.44404 -139.80063 10988 ft 305 kts 149°
2026-05-08 04:33 55.42632 -139.78102 10435 ft 297 kts 149°
2026-05-08 04:33 55.40893 -139.76191 9761 ft 293 kts 149°
2026-05-08 04:33 55.39155 -139.74304 8876 ft 294 kts 149°
2026-05-08 04:33 55.37413 -139.72438 8084 ft 293 kts 149°
2026-05-08 04:34 55.35678 -139.70605 7395 ft 289 kts 149°
2026-05-08 04:34 55.33965 -139.68818 6722 ft 285 kts 149°
2026-05-08 04:34 55.32270 -139.67067 6057 ft 281 kts 149°
2026-05-08 04:34 55.30589 -139.65346 5360 ft 278 kts 149°
2026-05-08 04:35 55.28926 -139.63661 4692 ft 274 kts 149°
2026-05-08 04:35 55.27284 -139.62020 4052 ft 269 kts 149°
2026-05-08 04:35 55.25670 -139.60435 3418 ft 264 kts 149°
2026-05-08 04:35 55.24066 -139.58895 2739 ft 262 kts 150°
2026-05-08 04:36 55.22468 -139.57395 2038 ft 260 kts 150°
2026-05-08 04:36 55.20869 -139.55927 1359 ft 258 kts 150°
2026-05-08 04:36 55.19280 -139.54493 697 ft 256 kts 151°
2026-05-08 04:36 55.17705 -139.53095 102 ft 253 kts 151°
2026-05-08 04:37 55.16330 -139.51823 58 ft 195 kts 148°
2026-05-08 04:37 55.15278 -139.50779 13 ft 143 kts 142°
2026-05-08 04:37 55.14847 -139.50103 12 ft 8 kts 130°
2026-05-08 04:37 55.14846 -139.50102 12 ft 0 kts 131°
2026-05-08 04:39 55.14846 -139.50103 12 ft 0 kts 130°
2026-05-08 04:40 55.14846 -139.50104 12 ft 0 kts 130°
2026-05-08 04:42 55.14847 -139.50104 12 ft 0 kts 130°
2026-05-08 04:43 55.14847 -139.50105 12 ft 0 kts 130°
2026-05-08 04:43 55.14847 -139.50104 12 ft 0 kts 130°
2026-05-08 04:44 55.14847 -139.50105 12 ft 0 kts 130°
2026-05-08 04:45 55.14847 -139.50106 12 ft 0 kts 130°
2026-05-08 04:46 55.14847 -139.50107 12 ft 0 kts 130°
2026-05-08 04:47 55.14846 -139.50107 10 ft 0 kts 131°
2026-05-08 04:47 55.14847 -139.50107 10 ft 0 kts 130°
2026-05-08 04:48 55.14846 -139.50107 10 ft 0 kts 131°
2026-05-08 04:48 55.14846 -139.50108 10 ft 0 kts 131°
2026-05-08 04:50 55.14846 -139.50109 10 ft 0 kts 131°
2026-05-08 04:51 55.14846 -139.50110 10 ft 0 kts 131°
2026-05-08 04:53 55.14846 -139.50111 15 ft 0 kts 132°
2026-05-08 04:54 55.14846 -139.50112 10 ft 0 kts 131°
2026-05-08 04:56 55.14846 -139.50113 16 ft 0 kts 132°
2026-05-08 04:57 55.14846 -139.50114 15 ft 0 kts 132°
2026-05-08 04:58 55.14847 -139.50114 16 ft 0 kts 132°
2026-05-08 04:58 55.14847 -139.50115 16 ft 0 kts 132°
2026-05-08 04:59 55.14846 -139.50115 15 ft 0 kts 132°
2026-05-08 04:59 55.14847 -139.50115 16 ft 0 kts 132°
2026-05-08 05:00 55.14847 -139.50116 10 ft 0 kts 132°
2026-05-08 05:00 55.14846 -139.50116 10 ft 0 kts 132°
2026-05-08 05:01 55.14846 -139.50117 10 ft 0 kts 132°
2026-05-08 05:01 55.14847 -139.50117 10 ft 0 kts 132°
2026-05-08 05:02 55.14846 -139.50117 10 ft 0 kts 133°
2026-05-08 05:02 55.14846 -139.50118 13 ft 0 kts 133°
2026-05-08 05:03 55.14847 -139.50118 13 ft 0 kts 133°
2026-05-08 05:03 55.14847 -139.50119 12 ft 0 kts 133°
2026-05-08 05:04 55.14847 -139.50118 13 ft 0 kts 132°
2026-05-08 05:04 55.14847 -139.50119 13 ft 0 kts 133°
2026-05-08 05:06 55.14847 -139.50120 13 ft 0 kts 133°
2026-05-08 05:07 55.14847 -139.50121 12 ft 0 kts 133°
2026-05-08 05:08 55.14847 -139.50122 13 ft 0 kts 133°
2026-05-08 05:09 55.14847 -139.50123 13 ft 0 kts 133°
2026-05-08 05:10 55.14847 -139.50124 13 ft 0 kts 133°
2026-05-08 05:12 55.14847 -139.50125 13 ft 0 kts 133°
2026-05-08 05:12 55.14847 -139.50126 13 ft 0 kts 133°
2026-05-08 05:13 55.14847 -139.50127 13 ft 0 kts 134°
2026-05-08 05:14 55.14847 -139.50128 13 ft 0 kts 134°
2026-05-08 05:15 55.14847 -139.50127 13 ft 0 kts 134°
2026-05-08 05:15 55.14847 -139.50128 13 ft 0 kts 134°
2026-05-08 05:16 55.14847 -139.50129 13 ft 0 kts 134°
2026-05-08 05:18 55.14847 -139.50130 10 ft 0 kts 134°
2026-05-08 05:19 55.14848 -139.50130 9 ft 0 kts 133°
2026-05-08 05:20 55.14848 -139.50131 10 ft 0 kts 133°
2026-05-08 05:21 55.14847 -139.50131 10 ft 0 kts 133°
2026-05-08 05:22 55.14848 -139.50131 10 ft 0 kts 133°
2026-05-08 05:22 55.14848 -139.50132 10 ft 0 kts 133°
2026-05-08 05:25 55.14848 -139.50133 10 ft 0 kts 133°
2026-05-08 05:27 55.14848 -139.50134 10 ft 0 kts 133°
2026-05-08 05:29 55.14849 -139.50134 10 ft 0 kts 132°
2026-05-08 05:29 55.14849 -139.50135 10 ft 0 kts 132°
2026-05-08 05:31 55.14849 -139.50136 10 ft 0 kts 132°
2026-05-08 05:33 55.14849 -139.50137 10 ft 0 kts 131°
2026-05-08 05:33 55.14850 -139.50136 10 ft 0 kts 131°
2026-05-08 05:33 55.14850 -139.50137 10 ft 0 kts 131°
2026-05-08 05:33 55.14849 -139.50137 10 ft 0 kts 131°
2026-05-08 05:34 55.14850 -139.50137 10 ft 0 kts 131°
2026-05-08 05:35 55.14850 -139.50138 10 ft 0 kts 131°
2026-05-08 05:37 55.14850 -139.50139 10 ft 0 kts 131°
2026-05-08 05:39 55.14850 -139.50140 10 ft 0 kts 131°
2026-05-08 05:40 55.14850 -139.50141 10 ft 0 kts 131°
2026-05-08 05:41 55.14851 -139.50141 10 ft 0 kts 131°
2026-05-08 05:41 55.14850 -139.50141 10 ft 0 kts 131°
2026-05-08 05:42 55.14851 -139.50141 10 ft 0 kts 131°
2026-05-08 05:42 55.14851 -139.50142 10 ft 0 kts 131°
2026-05-08 05:43 55.14851 -139.50143 10 ft 0 kts 131°
2026-05-08 05:44 55.14851 -139.50144 10 ft 0 kts 131°
2026-05-08 05:46 55.14851 -139.50145 10 ft 0 kts 131°
2026-05-08 05:46 55.14851 -139.50144 10 ft 0 kts 131°
2026-05-08 05:46 55.14851 -139.50145 10 ft 0 kts 131°
2026-05-08 05:47 55.14851 -139.50146 10 ft 0 kts 132°
2026-05-08 05:48 55.14851 -139.50147 13 ft 0 kts 131°
2026-05-08 05:49 55.14851 -139.50148 12 ft 0 kts 132°
2026-05-08 05:51 55.14851 -139.50149 13 ft 0 kts 132°
2026-05-08 05:52 55.14851 -139.50150 13 ft 0 kts 132°
2026-05-08 05:54 55.14851 -139.50151 13 ft 0 kts 132°
2026-05-08 05:54 55.14851 -139.50150 12 ft 0 kts 132°
2026-05-08 05:55 55.14851 -139.50151 13 ft 0 kts 132°
2026-05-08 05:55 55.14851 -139.50150 13 ft 0 kts 132°
2026-05-08 05:55 55.14851 -139.50151 13 ft 0 kts 132°
2026-05-08 05:56 55.14852 -139.50150 10 ft 0 kts 131°
2026-05-08 05:57 55.14852 -139.50151 10 ft 0 kts 131°
2026-05-08 05:57 55.14852 -139.50152 9 ft 0 kts 132°
2026-05-08 05:59 55.14852 -139.50153 10 ft 0 kts 131°
2026-05-08 06:00 55.14852 -139.50154 7 ft 0 kts 132°
2026-05-08 06:01 55.14851 -139.50154 7 ft 0 kts 132°
2026-05-08 06:02 55.14852 -139.50155 7 ft 0 kts 131°
2026-05-08 06:03 55.14852 -139.50156 10 ft 0 kts 131°
2026-05-08 06:04 55.14852 -139.50157 10 ft 0 kts 131°
2026-05-08 06:05 55.14852 -139.50158 10 ft 0 kts 131°
2026-05-08 06:07 55.14853 -139.50158 10 ft 0 kts 130°
2026-05-08 06:07 55.14852 -139.50159 10 ft 0 kts 130°
2026-05-08 06:08 55.14853 -139.50159 11 ft 0 kts 130°
2026-05-08 06:08 55.14853 -139.50160 10 ft 0 kts 130°
2026-05-08 06:09 55.14853 -139.50161 10 ft 0 kts 130°
2026-05-08 06:11 55.14854 -139.50162 10 ft 0 kts 129°
2026-05-08 06:13 55.14854 -139.50163 11 ft 0 kts 129°
2026-05-08 06:14 55.14854 -139.50164 10 ft 0 kts 129°
2026-05-08 06:15 55.14854 -139.50165 10 ft 0 kts 129°
2026-05-08 06:17 55.14855 -139.50166 10 ft 0 kts 128°
2026-05-08 06:18 55.14855 -139.50167 13 ft 0 kts 128°
2026-05-08 06:19 55.14855 -139.50168 13 ft 0 kts 128°
2026-05-08 06:21 55.14855 -139.50169 12 ft 0 kts 128°
2026-05-08 06:22 55.14855 -139.50170 13 ft 0 kts 128°
2026-05-08 06:23 55.14855 -139.50171 13 ft 0 kts 128°
2026-05-08 06:25 55.14856 -139.50171 13 ft 0 kts 127°
2026-05-08 06:26 55.14856 -139.50172 13 ft 0 kts 127°
2026-05-08 06:26 55.14855 -139.50172 13 ft 0 kts 127°
2026-05-08 06:26 55.14856 -139.50172 13 ft 0 kts 127°
2026-05-08 06:27 55.14855 -139.50173 13 ft 0 kts 128°
2026-05-08 06:28 55.14856 -139.50173 13 ft 0 kts 127°
2026-05-08 06:28 55.14855 -139.50174 12 ft 0 kts 128°
2026-05-08 06:30 55.14856 -139.50174 12 ft 0 kts 127°
2026-05-08 06:30 55.14856 -139.50175 13 ft 0 kts 127°
2026-05-08 06:31 55.14856 -139.50176 12 ft 0 kts 127°
2026-05-08 06:33 55.14856 -139.50177 12 ft 0 kts 127°
2026-05-08 06:34 55.14856 -139.50178 12 ft 0 kts 127°
2026-05-08 06:35 55.14856 -139.50179 12 ft 0 kts 127°
2026-05-08 06:36 55.14857 -139.50179 12 ft 0 kts 127°
2026-05-08 06:36 55.14857 -139.50180 13 ft 0 kts 127°
2026-05-08 06:39 55.14857 -139.50181 13 ft 0 kts 126°
2026-05-08 06:39 55.00869 82.65686 12 ft 0 kts 128°